Wetterdaten: Freitag, 04.12.2015
Datum Zeit Temp. Aussen Temp. o. S. +5cm Feuchte Auss BlattFeu 1 Luftdruck Regen Sonnenschein Regendauer Solar Windben Empfang
04.12.2015 00:00 7,2 C 7,2 C 6,1 C 87 % 0 lf 1020,5 hPa 0,0 l/m 0 min 0 min 0 W/m 23,0 km/h (4 Bft) 97,87 %
04.12.2015 00:02 7,3 C 7,2 C 6,1 C 87 % 0 lf 1020,4 hPa 0,0 l/m 0 min 0 min 0 W/m 20,9 km/h (4 Bft) 97,44 %
04.12.2015 00:06 7,3 C 7,2 C 6,1 C 86 % 0 lf 1020,5 hPa 0,0 l/m 0 min 0 min 0 W/m 18,8 km/h (3 Bft) 97,89 %
04.12.2015 00:08 7,3 C 7,2 C 6,1 C 86 % 0 lf 1020,5 hPa 0,0 l/m 0 min 0 min 0 W/m 18,8 km/h (3 Bft) 95,74 %
04.12.2015 00:10 7,3 C 7,2 C 6,1 C 86 % 0 lf 1020,5 hPa 0,0 l/m 0 min 0 min 0 W/m 18,8 km/h (3 Bft) 97,87 %
04.12.2015 00:12 7,3 C 7,2 C 6,1 C 86 % 0 lf 1020,6 hPa 0,0 l/m 0 min 0 min 0 W/m 14,6 km/h (3 Bft) 95,65 %
04.12.2015 00:14 7,3 C 7,2 C 6,1 C 86 % 0 lf 1020,5 hPa 0,0 l/m 0 min 0 min 0 W/m 14,6 km/h (3 Bft) 97,87 %
04.12.2015 00:16 7,3 C 7,2 C 6,1 C 86 % 0 lf 1020,5 hPa 0,0 l/m 0 min 0 min 0 W/m 23,0 km/h (4 Bft) 97,87 %
04.12.2015 00:18 7,3 C 7,2 C 6,1 C 86 % 0 lf 1020,5 hPa 0,0 l/m 0 min 0 min 0 W/m 16,7 km/h (3 Bft) 93,62 %
04.12.2015 00:20 7,3 C 7,2 C 6,1 C 86 % 0 lf 1020,5 hPa 0,0 l/m 0 min 0 min 0 W/m 16,7 km/h (3 Bft) 95,74 %
04.12.2015 00:22 7,3 C 7,2 C 6,1 C 86 % 0 lf 1020,5 hPa 0,0 l/m 0 min 0 min 0 W/m 16,7 km/h (3 Bft) 91,49 %
04.12.2015 00:24 7,3 C 7,2 C 6,1 C 86 % 0 lf 1020,5 hPa 0,0 l/m 0 min 0 min 0 W/m 16,7 km/h (3 Bft) 95,65 %
04.12.2015 00:26 7,3 C 7,2 C 6,1 C 86 % 0 lf 1020,5 hPa 0,0 l/m 0 min 0 min 0 W/m 23,0 km/h (4 Bft) 93,62 %
04.12.2015 00:28 7,3 C 7,2 C 6,1 C 86 % 0 lf 1020,5 hPa 0,0 l/m 0 min 0 min 0 W/m 16,7 km/h (3 Bft) 95,74 %
04.12.2015 00:30 7,3 C 7,2 C 6,1 C 86 % 0 lf 1020,5 hPa 0,0 l/m 0 min 0 min 0 W/m 20,9 km/h (4 Bft) 95,74 %
04.12.2015 00:32 7,3 C 7,2 C 6,1 C 86 % 0 lf 1020,4 hPa 0,0 l/m 0 min 0 min 0 W/m 14,6 km/h (3 Bft) 95,83 %
04.12.2015 00:34 7,3 C 7,2 C 6,1 C 86 % 0 lf 1020,4 hPa 0,0 l/m 0 min 0 min 0 W/m 16,7 km/h (3 Bft) 87,23 %
04.12.2015 00:36 7,3 C 7,2 C 6,1 C 86 % 0 lf 1020,4 hPa 0,0 l/m 0 min 0 min 0 W/m 16,7 km/h (3 Bft) 93,48 %
04.12.2015 00:38 7,3 C 7,2 C 6,1 C 86 % 0 lf 1020,5 hPa 0,0 l/m 0 min 0 min 0 W/m 14,6 km/h (3 Bft) 91,49 %
04.12.2015 00:40 7,3 C 7,2 C 6,1 C 86 % 0 lf 1020,4 hPa 0,0 l/m 0 min 0 min 0 W/m 14,6 km/h (3 Bft) 91,49 %
04.12.2015 00:42 7,3 C 7,2 C 6,1 C 86 % 0 lf 1020,3 hPa 0,0 l/m 0 min 0 min 0 W/m 14,6 km/h (3 Bft) 91,49 %
04.12.2015 00:44 7,3 C 7,2 C 6,1 C 86 % 0 lf 1020,3 hPa 0,0 l/m 0 min 0 min 0 W/m 20,9 km/h (4 Bft) 91,49 %
04.12.2015 00:46 7,3 C 7,2 C 6,1 C 86 % 0 lf 1020,3 hPa 0,0 l/m 0 min 0 min 0 W/m 14,6 km/h (3 Bft) 87,23 %
04.12.2015 00:48 7,3 C 7,2 C 6,1 C 87 % 0 lf 1020,3 hPa 0,0 l/m 0 min 0 min 0 W/m 23,0 km/h (4 Bft) 93,48 %
04.12.2015 00:50 7,3 C 7,2 C 6,1 C 87 % 0 lf 1020,3 hPa 0,0 l/m 0 min 0 min 0 W/m 18,8 km/h (3 Bft) 91,49 %
04.12.2015 00:52 7,3 C 7,2 C 6,1 C 87 % 0 lf 1020,3 hPa 0,0 l/m 0 min 0 min 0 W/m 18,8 km/h (3 Bft) 91,49 %
04.12.2015 00:54 7,3 C 7,2 C 6,1 C 87 % 0 lf 1020,3 hPa 0,0 l/m 0 min 0 min 0 W/m 16,7 km/h (3 Bft) 95,74 %
04.12.2015 00:56 7,3 C 7,2 C 6,1 C 86 % 0 lf 1020,3 hPa 0,0 l/m 0 min 0 min 0 W/m 18,8 km/h (3 Bft) 93,62 %
04.12.2015 00:58 7,3 C 7,2 C 6,1 C 87 % 0 lf 1020,3 hPa 0,0 l/m 0 min 0 min 0 W/m 18,8 km/h (3 Bft) 95,65 %
04.12.2015 01:00 7,3 C 7,2 C 6,1 C 87 % 0 lf 1020,2 hPa 0,0 l/m 0 min 0 min 0 W/m 20,9 km/h (4 Bft) 95,74 %
04.12.2015 01:02 7,3 C 7,2 C 6,1 C 87 % 0 lf 1020,1 hPa 0,0 l/m 0 min 0 min 0 W/m 14,6 km/h (3 Bft) 95,83 %
04.12.2015 01:04 7,3 C 7,2 C 6,1 C 87 % 0 lf 1020,1 hPa 0,0 l/m 0 min 0 min 0 W/m 14,6 km/h (3 Bft) 93,62 %
04.12.2015 01:06 7,3 C 7,2 C 6,1 C 87 % 0 lf 1020,2 hPa 0,0 l/m 0 min 0 min 0 W/m 20,9 km/h (4 Bft) 95,74 %
04.12.2015 01:08 7,2 C 7,2 C 6,1 C 87 % 0 lf 1020,1 hPa 0,0 l/m 0 min 0 min 0 W/m 18,8 km/h (3 Bft) 93,62 %
04.12.2015 01:10 7,2 C 7,2 C 6,1 C 87 % 0 lf 1020,1 hPa 0,0 l/m 0 min 0 min 0 W/m 14,6 km/h (3 Bft) 100,00 %
04.12.2015 01:12 7,2 C 7,2 C 6,1 C 87 % 0 lf 1020,0 hPa 0,0 l/m 0 min 0 min 0 W/m 18,8 km/h (3 Bft) 97,87 %
04.12.2015 01:14 7,2 C 7,2 C 6,1 C 87 % 0 lf 1020,0 hPa 0,0 l/m 0 min 0 min 0 W/m 16,7 km/h (3 Bft) 95,74 %
04.12.2015 01:16 7,2 C 7,2 C 6,1 C 87 % 0 lf 1020,0 hPa 0,0 l/m 0 min 0 min 0 W/m 14,6 km/h (3 Bft) 95,74 %
04.12.2015 01:18 7,2 C 7,2 C 6,1 C 87 % 0 lf 1019,9 hPa 0,0 l/m 0 min 0 min 0 W/m 18,8 km/h (3 Bft) 95,74 %
04.12.2015 01:20 7,2 C 7,2 C 6,1 C 87 % 0 lf 1019,9 hPa 0,0 l/m 0 min 0 min 0 W/m 14,6 km/h (3 Bft) 95,74 %
04.12.2015 01:22 7,2 C 7,2 C 6,1 C 87 % 0 lf 1019,7 hPa 0,0 l/m 0 min 0 min 0 W/m 20,9 km/h (4 Bft) 95,65 %
04.12.2015 01:24 7,2 C 7,2 C 6,1 C 87 % 0 lf 1019,7 hPa 0,0 l/m 0 min 0 min 0 W/m 20,9 km/h (4 Bft) 93,62 %
04.12.2015 01:26 7,2 C 7,2 C 6,1 C 87 % 0 lf 1019,7 hPa 0,0 l/m 0 min 0 min 0 W/m 16,7 km/h (3 Bft) 89,36 %
04.12.2015 01:28 7,2 C 7,2 C 6,1 C 87 % 0 lf 1019,7 hPa 0,0 l/m 0 min 0 min 0 W/m 16,7 km/h (3 Bft) 95,74 %
04.12.2015 01:30 7,2 C 7,2 C 6,1 C 87 % 0 lf 1019,6 hPa 0,0 l/m 0 min 0 min 0 W/m 14,6 km/h (3 Bft) 95,74 %
04.12.2015 01:32 7,2 C 7,2 C 6,1 C 87 % 0 lf 1019,5 hPa 0,0 l/m 0 min 0 min 0 W/m 16,7 km/h (3 Bft) 97,87 %
04.12.2015 01:34 7,2 C 7,2 C 6,1 C 87 % 0 lf 1019,5 hPa 0,0 l/m 0 min 0 min 0 W/m 16,7 km/h (3 Bft) 97,83 %
04.12.2015 01:36 7,2 C 7,2 C 6,1 C 87 % 0 lf 1019,6 hPa 0,0 l/m 0 min 0 min 0 W/m 14,6 km/h (3 Bft) 93,62 %
04.12.2015 01:38 7,3 C 7,2 C 6,1 C 87 % 0 lf 1019,5 hPa 0,0 l/m 0 min 0 min 0 W/m 12,6 km/h (3 Bft) 97,87 %
04.12.2015 01:40 7,2 C 7,2 C 6,1 C 86 % 0 lf 1019,5 hPa 0,0 l/m 0 min 0 min 0 W/m 14,6 km/h (3 Bft) 95,74 %
04.12.2015 01:42 7,2 C 7,2 C 6,1 C 86 % 0 lf 1019,5 hPa 0,0 l/m 0 min 0 min 0 W/m 14,6 km/h (3 Bft) 93,62 %
04.12.2015 01:44 7,2 C 7,2 C 6,1 C 86 % 0 lf 1019,5 hPa 0,0 l/m 0 min 0 min 0 W/m 12,6 km/h (3 Bft) 97,87 %
04.12.2015 01:46 7,2 C 7,2 C 6,1 C 86 % 0 lf 1019,5 hPa 0,0 l/m 0 min 0 min 0 W/m 12,6 km/h (3 Bft) 95,65 %
04.12.2015 01:48 7,3 C 7,2 C 5,6 C 86 % 0 lf 1019,6 hPa 0,0 l/m 0 min 0 min 0 W/m 12,6 km/h (3 Bft) 97,87 %
04.12.2015 01:50 7,2 C 7,2 C 6,1 C 86 % 0 lf 1019,6 hPa 0,0 l/m 0 min 0 min 0 W/m 14,6 km/h (3 Bft) 97,87 %
04.12.2015 01:52 7,3 C 7,2 C 6,1 C 86 % 0 lf 1019,5 hPa 0,0 l/m 0 min 0 min 0 W/m 12,6 km/h (3 Bft) 97,87 %
04.12.2015 01:54 7,2 C 7,2 C 5,6 C 86 % 0 lf 1019,4 hPa 0,0 l/m 0 min 0 min 0 W/m 12,6 km/h (3 Bft) 97,87 %
04.12.2015 01:56 7,2 C 7,2 C 5,6 C 86 % 0 lf 1019,4 hPa 0,0 l/m 0 min 0 min 0 W/m 12,6 km/h (3 Bft) 93,62 %
04.12.2015 01:58 7,2 C 7,2 C 5,6 C 86 % 0 lf 1019,4 hPa 0,0 l/m 0 min 0 min 0 W/m 12,6 km/h (3 Bft) 95,65 %
04.12.2015 02:00 7,2 C 7,2 C 5,6 C 86 % 0 lf 1019,4 hPa 0,0 l/m 0 min 0 min 0 W/m 16,7 km/h (3 Bft) 95,74 %
04.12.2015 02:02 7,2 C 7,2 C 5,6 C 86 % 0 lf 1019,4 hPa 0,0 l/m 0 min 0 min 0 W/m 12,6 km/h (3 Bft) 95,83 %
04.12.2015 02:04 7,2 C 7,2 C 5,6 C 86 % 0 lf 1019,2 hPa 0,0 l/m 0 min 0 min 0 W/m 12,6 km/h (3 Bft) 97,87 %
04.12.2015 02:06 7,2 C 7,2 C 5,6 C 86 % 0 lf 1019,2 hPa 0,0 l/m 0 min 0 min 0 W/m 14,6 km/h (3 Bft) 97,87 %
04.12.2015 02:08 7,2 C 7,2 C 5,6 C 86 % 0 lf 1019,1 hPa 0,0 l/m 0 min 0 min 0 W/m 20,9 km/h (4 Bft) 93,48 %
04.12.2015 02:10 7,2 C 7,2 C 5,6 C 87 % 0 lf 1019,1 hPa 0,0 l/m 0 min 0 min 0 W/m 16,7 km/h (3 Bft) 97,87 %
04.12.2015 02:12 7,2 C 7,2 C 5,6 C 87 % 0 lf 1019,0 hPa 0,0 l/m 0 min 0 min 0 W/m 10,5 km/h (2 Bft) 95,74 %
04.12.2015 02:14 7,1 C 7,2 C 5,6 C 87 % 0 lf 1019,1 hPa 0,0 l/m 0 min 0 min 0 W/m 18,8 km/h (3 Bft) 97,87 %
04.12.2015 02:16 7,1 C 7,2 C 5,6 C 87 % 0 lf 1019,1 hPa 0,0 l/m 0 min 0 min 0 W/m 12,6 km/h (3 Bft) 93,62 %
04.12.2015 02:18 7,1 C 7,2 C 5,6 C 87 % 0 lf 1019,0 hPa 0,0 l/m 0 min 0 min 0 W/m 14,6 km/h (3 Bft) 97,87 %
04.12.2015 02:20 7,1 C 7,2 C 5,6 C 86 % 0 lf 1019,2 hPa 0,0 l/m 0 min 0 min 0 W/m 12,6 km/h (3 Bft) 95,65 %
04.12.2015 02:22 7,1 C 7,2 C 5,6 C 87 % 0 lf 1019,2 hPa 0,0 l/m 0 min 0 min 0 W/m 12,6 km/h (3 Bft) 100,00 %
04.12.2015 02:24 7,1 C 7,2 C 5,6 C 87 % 0 lf 1019,2 hPa 0,0 l/m 0 min 0 min 0 W/m 12,6 km/h (3 Bft) 95,74 %
04.12.2015 02:26 7,1 C 7,2 C 5,6 C 87 % 0 lf 1019,2 hPa 0,0 l/m 0 min 0 min 0 W/m 12,6 km/h (3 Bft) 100,00 %
04.12.2015 02:28 7,1 C 7,2 C 5,6 C 87 % 0 lf 1019,2 hPa 0,0 l/m 0 min 0 min 0 W/m 8,4 km/h (2 Bft) 97,87 %
04.12.2015 02:30 7,1 C 7,2 C 5,6 C 87 % 0 lf 1019,4 hPa 0,0 l/m 0 min 0 min 0 W/m 18,8 km/h (3 Bft) 95,74 %
04.12.2015 02:32 7,1 C 7,2 C 5,6 C 87 % 0 lf 1019,3 hPa 0,0 l/m 0 min 0 min 0 W/m 12,6 km/h (3 Bft) 95,74 %
04.12.2015 02:34 7,1 C 7,2 C 5,6 C 87 % 0 lf 1019,2 hPa 0,0 l/m 0 min 0 min 0 W/m 14,6 km/h (3 Bft) 95,74 %
04.12.2015 02:36 7,1 C 7,2 C 5,6 C 87 % 0 lf 1019,2 hPa 0,0 l/m 0 min 0 min 0 W/m 10,5 km/h (2 Bft) 91,49 %
04.12.2015 02:38 7,1 C 7,2 C 5,6 C 87 % 0 lf 1019,2 hPa 0,0 l/m 0 min 0 min 0 W/m 12,6 km/h (3 Bft) 95,74 %
04.12.2015 02:40 7,1 C 7,2 C 6,1 C 87 % 0 lf 1019,0 hPa 0,0 l/m 0 min 0 min 0 W/m 12,6 km/h (3 Bft) 97,87 %
04.12.2015 02:42 7,1 C 7,2 C 6,1 C 87 % 0 lf 1019,0 hPa 0,0 l/m 0 min 0 min 0 W/m 14,6 km/h (3 Bft) 93,62 %
04.12.2015 02:44 7,1 C 7,2 C 6,1 C 87 % 0 lf 1018,9 hPa 0,0 l/m 0 min 0 min 0 W/m 12,6 km/h (3 Bft) 95,65 %
04.12.2015 02:46 7,1 C 7,2 C 6,1 C 87 % 0 lf 1018,9 hPa 0,0 l/m 0 min 0 min 0 W/m 14,6 km/h (3 Bft) 97,87 %
04.12.2015 02:48 7,1 C 7,2 C 6,1 C 87 % 0 lf 1019,0 hPa 0,0 l/m 0 min 0 min 0 W/m 14,6 km/h (3 Bft) 97,87 %
04.12.2015 02:50 7,1 C 7,2 C 6,1 C 87 % 0 lf 1018,9 hPa 0,0 l/m 0 min 0 min 0 W/m 12,6 km/h (3 Bft) 97,87 %
04.12.2015 02:52 7,1 C 7,2 C 6,1 C 87 % 0 lf 1018,9 hPa 0,0 l/m 0 min 0 min 0 W/m 10,5 km/h (2 Bft) 93,62 %
04.12.2015 02:54 7,1 C 7,2 C 6,1 C 87 % 0 lf 1018,8 hPa 0,0 l/m 0 min 0 min 0 W/m 12,6 km/h (3 Bft) 95,65 %
04.12.2015 02:56 7,2 C 7,2 C 6,1 C 87 % 0 lf 1018,9 hPa 0,0 l/m 0 min 0 min 0 W/m 18,8 km/h (3 Bft) 93,62 %
04.12.2015 02:58 7,2 C 7,2 C 6,1 C 87 % 0 lf 1018,9 hPa 0,0 l/m 0 min 0 min 0 W/m 16,7 km/h (3 Bft) 95,74 %
04.12.2015 03:00 7,2 C 7,2 C 6,1 C 87 % 0 lf 1018,8 hPa 0,0 l/m 0 min 0 min 0 W/m 16,7 km/h (3 Bft) 95,74 %
04.12.2015 03:02 7,2 C 7,8 C 6,1 C 87 % 0 lf 1018,8 hPa 0,0 l/m 0 min 0 min 0 W/m 14,6 km/h (3 Bft) 95,83 %
04.12.2015 03:04 7,2 C 7,8 C 6,1 C 87 % 0 lf 1018,8 hPa 0,0 l/m 0 min 0 min 0 W/m 12,6 km/h (3 Bft) 95,65 %
04.12.2015 03:06 7,2 C 7,8 C 6,1 C 87 % 0 lf 1018,7 hPa 0,0 l/m 0 min 0 min 0 W/m 14,6 km/h (3 Bft) 97,87 %
04.12.2015 03:08 7,2 C 7,8 C 6,1 C 87 % 0 lf 1018,7 hPa 0,0 l/m 0 min 0 min 0 W/m 16,7 km/h (3 Bft) 93,62 %
04.12.2015 03:10 7,2 C 7,8 C 6,1 C 87 % 0 lf 1018,7 hPa 0,0 l/m 0 min 0 min 0 W/m 12,6 km/h (3 Bft) 97,87 %
04.12.2015 03:12 7,2 C 7,8 C 6,1 C 87 % 0 lf 1018,7 hPa 0,0 l/m 0 min 0 min 0 W/m 12,6 km/h (3 Bft) 95,74 %
04.12.2015 03:14 7,3 C 7,8 C 6,1 C 87 % 0 lf 1018,7 hPa 0,0 l/m 0 min 0 min 0 W/m 16,7 km/h (3 Bft) 93,62 %
04.12.2015 03:16 7,3 C 7,8 C 6,1 C 87 % 0 lf 1018,6 hPa 0,0 l/m 0 min 0 min 0 W/m 14,6 km/h (3 Bft) 93,48 %
04.12.2015 03:18 7,3 C 7,8 C 6,1 C 87 % 0 lf 1018,7 hPa 0,0 l/m 0 min 0 min 0 W/m 12,6 km/h (3 Bft) 95,74 %
04.12.2015 03:20 7,3 C 7,8 C 6,1 C 87 % 0 lf 1018,6 hPa 0,0 l/m 0 min 0 min 0 W/m 12,6 km/h (3 Bft) 93,62 %
04.12.2015 03:22 7,3 C 7,8 C 6,1 C 87 % 0 lf 1018,7 hPa 0,0 l/m 0 min 0 min 0 W/m 16,7 km/h (3 Bft) 93,62 %
04.12.2015 03:24 7,3 C 7,8 C 6,1 C 87 % 0 lf 1018,6 hPa 0,0 l/m 0 min 0 min 0 W/m 10,5 km/h (2 Bft) 93,62 %
04.12.2015 03:26 7,3 C 7,8 C 6,1 C 87 % 0 lf 1018,7 hPa 0,0 l/m 0 min 0 min 0 W/m 16,7 km/h (3 Bft) 93,62 %
04.12.2015 03:28 7,3 C 7,8 C 6,1 C 87 % 0 lf 1018,6 hPa 0,0 l/m 0 min 0 min 0 W/m 12,6 km/h (3 Bft) 89,13 %
04.12.2015 03:30 7,3 C 7,8 C 6,1 C 87 % 0 lf 1018,6 hPa 0,0 l/m 0 min 0 min 0 W/m 14,6 km/h (3 Bft) 95,74 %
04.12.2015 03:32 7,3 C 7,8 C 6,1 C 87 % 0 lf 1018,6 hPa 0,0 l/m 0 min 0 min 0 W/m 12,6 km/h (3 Bft) 93,62 %
04.12.2015 03:34 7,4 C 7,8 C 6,1 C 87 % 0 lf 1018,6 hPa 0,0 l/m 0 min 0 min 0 W/m 14,6 km/h (3 Bft) 95,74 %
04.12.2015 03:36 7,4 C 7,8 C 6,7 C 87 % 0 lf 1018,7 hPa 0,0 l/m 0 min 0 min 0 W/m 10,5 km/h (2 Bft) 93,62 %
04.12.2015 03:38 7,4 C 7,8 C 6,7 C 87 % 0 lf 1018,6 hPa 0,0 l/m 0 min 0 min 0 W/m 10,5 km/h (2 Bft) 93,62 %
04.12.2015 03:40 7,4 C 7,8 C 6,7 C 87 % 0 lf 1018,7 hPa 0,0 l/m 0 min 0 min 0 W/m 12,6 km/h (3 Bft) 97,83 %
04.12.2015 03:42 7,4 C 7,8 C 6,7 C 87 % 0 lf 1018,7 hPa 0,0 l/m 0 min 0 min 0 W/m 14,6 km/h (3 Bft) 97,87 %
04.12.2015 03:44 7,5 C 8,3 C 6,7 C 87 % 0 lf 1018,7 hPa 0,0 l/m 0 min 0 min 0 W/m 14,6 km/h (3 Bft) 93,62 %
04.12.2015 03:46 7,5 C 8,3 C 6,7 C 87 % 0 lf 1018,7 hPa 0,0 l/m 0 min 0 min 0 W/m 14,6 km/h (3 Bft) 95,74 %
04.12.2015 03:48 7,6 C 8,3 C 6,7 C 87 % 0 lf 1018,7 hPa 0,0 l/m 0 min 0 min 0 W/m 14,6 km/h (3 Bft) 95,74 %
04.12.2015 03:50 7,6 C 8,9 C 7,2 C 87 % 0 lf 1018,6 hPa 0,0 l/m 0 min 0 min 0 W/m 14,6 km/h (3 Bft) 97,83 %
04.12.2015 03:52 7,7 C 8,9 C 7,2 C 87 % 0 lf 1018,7 hPa 0,0 l/m 0 min 0 min 0 W/m 18,8 km/h (3 Bft) 97,87 %
04.12.2015 03:54 7,8 C 9,4 C 7,2 C 88 % 0 lf 1018,7 hPa 0,0 l/m 0 min 0 min 0 W/m 14,6 km/h (3 Bft) 95,74 %
04.12.2015 03:56 7,8 C 9,4 C 7,2 C 88 % 0 lf 1018,7 hPa 0,0 l/m 0 min 0 min 0 W/m 18,8 km/h (3 Bft) 97,87 %
04.12.2015 03:58 7,9 C 9,4 C 7,8 C 88 % 0 lf 1018,7 hPa 0,0 l/m 0 min 0 min 0 W/m 20,9 km/h (4 Bft) 95,74 %
04.12.2015 04:00 8,1 C 10,0 C 7,8 C 87 % 0 lf 1018,7 hPa 0,0 l/m 0 min 0 min 0 W/m 14,6 km/h (3 Bft) 97,87 %
04.12.2015 04:02 8,1 C 10,0 C 7,8 C 87 % 0 lf 1018,7 hPa 0,0 l/m 0 min 0 min 0 W/m 10,5 km/h (2 Bft) 100,00 %
04.12.2015 04:07 8,4 C 10,0 C 8,3 C 87 % 0 lf 1018,7 hPa 0,0 l/m 0 min 0 min 0 W/m 20,9 km/h (4 Bft) 100,00 %
04.12.2015 04:08 8,5 C 10,0 C 8,3 C 87 % 0 lf 1018,7 hPa 0,0 l/m 0 min 0 min 0 W/m 23,0 km/h (4 Bft) 100,00 %
04.12.2015 04:10 8,7 C 10,0 C 8,3 C 86 % 0 lf 1018,7 hPa 0,0 l/m 0 min 0 min 0 W/m 18,8 km/h (3 Bft) 97,87 %
04.12.2015 04:12 8,8 C 10,6 C 8,3 C 86 % 0 lf 1018,6 hPa 0,0 l/m 0 min 0 min 0 W/m 20,9 km/h (4 Bft) 97,87 %
04.12.2015 04:14 8,9 C 10,6 C 8,3 C 86 % 0 lf 1018,6 hPa 0,0 l/m 0 min 0 min 0 W/m 16,7 km/h (3 Bft) 100,00 %
04.12.2015 04:16 9,0 C 10,6 C 8,9 C 85 % 0 lf 1018,6 hPa 0,0 l/m 0 min 0 min 0 W/m 23,0 km/h (4 Bft) 97,87 %
04.12.2015 04:18 9,1 C 11,1 C 8,9 C 85 % 1 lf 1018,6 hPa 0,0 l/m 0 min 0 min 0 W/m 31,4 km/h (5 Bft) 100,00 %
04.12.2015 04:20 9,3 C 11,1 C 8,9 C 84 % 0 lf 1018,6 hPa 0,0 l/m 0 min 2 min 0 W/m 29,3 km/h (5 Bft) 95,74 %
04.12.2015 04:22 9,5 C 11,1 C 8,9 C 84 % 0 lf 1018,5 hPa 0,0 l/m 0 min 2 min 0 W/m 25,1 km/h (4 Bft) 97,87 %
04.12.2015 04:24 9,7 C 11,1 C 8,9 C 83 % 0 lf 1018,5 hPa 0,0 l/m 0 min 2 min 0 W/m 27,2 km/h (4 Bft) 97,87 %
04.12.2015 04:26 9,8 C 11,1 C 8,9 C 83 % 0 lf 1018,6 hPa 0,0 l/m 0 min 0 min 0 W/m 25,1 km/h (4 Bft) 97,87 %
04.12.2015 04:28 9,9 C 11,1 C 9,4 C 82 % 0 lf 1018,6 hPa 0,0 l/m 0 min 0 min 0 W/m 41,8 km/h (6 Bft) 95,65 %
04.12.2015 04:30 10,1 C 11,7 C 9,4 C 81 % 0 lf 1018,6 hPa 0,0 l/m 0 min 0 min 0 W/m 25,1 km/h (4 Bft) 97,87 %
04.12.2015 04:32 10,3 C 11,7 C 9,4 C 80 % 0 lf 1018,6 hPa 0,0 l/m 0 min 0 min 0 W/m 20,9 km/h (4 Bft) 100,00 %
04.12.2015 04:34 10,4 C 11,7 C 9,4 C 80 % 2 lf 1018,7 hPa 0,0 l/m 0 min 0 min 0 W/m 27,2 km/h (4 Bft) 97,87 %
04.12.2015 04:36 10,5 C 11,7 C 9,4 C 79 % 0 lf 1018,7 hPa 0,0 l/m 0 min 2 min 0 W/m 29,3 km/h (5 Bft) 95,74 %
04.12.2015 04:38 10,6 C 11,7 C 9,4 C 79 % 2 lf 1018,6 hPa 0,0 l/m 0 min 2 min 0 W/m 31,4 km/h (5 Bft) 97,87 %
04.12.2015 04:40 10,7 C 11,1 C 8,9 C 79 % 9 lf 1018,7 hPa 0,0 l/m 0 min 2 min 0 W/m 33,5 km/h (5 Bft) 97,83 %
04.12.2015 04:42 10,8 C 10,0 C 8,3 C 79 % 15 lf 1018,7 hPa 0,0 l/m 0 min 2 min 0 W/m 39,7 km/h (6 Bft) 97,87 %
04.12.2015 04:44 10,8 C 9,4 C 7,8 C 79 % 15 lf 1018,7 hPa 0,0 l/m 0 min 2 min 0 W/m 29,3 km/h (5 Bft) 97,87 %
04.12.2015 04:46 10,8 C 8,9 C 7,8 C 80 % 15 lf 1018,9 hPa 0,0 l/m 0 min 2 min 0 W/m 35,6 km/h (5 Bft) 97,87 %
04.12.2015 04:48 10,8 C 8,9 C 7,2 C 80 % 15 lf 1018,9 hPa 0,2 l/m 0 min 2 min 0 W/m 31,4 km/h (5 Bft) 97,87 %
04.12.2015 04:50 10,8 C 8,9 C 7,2 C 81 % 15 lf 1018,8 hPa 0,0 l/m 0 min 2 min 0 W/m 18,8 km/h (3 Bft) 97,87 %
04.12.2015 04:52 10,8 C 8,3 C 7,2 C 81 % 15 lf 1018,9 hPa 0,0 l/m 0 min 2 min 0 W/m 41,8 km/h (6 Bft) 97,83 %
04.12.2015 04:54 10,7 C 8,3 C 7,2 C 82 % 15 lf 1019,0 hPa 0,2 l/m 0 min 2 min 0 W/m 29,3 km/h (5 Bft) 93,62 %
04.12.2015 04:56 10,7 C 8,3 C 7,2 C 83 % 15 lf 1019,1 hPa 0,0 l/m 0 min 2 min 0 W/m 35,6 km/h (5 Bft) 97,87 %
04.12.2015 04:58 10,6 C 8,3 C 7,2 C 83 % 15 lf 1019,1 hPa 0,2 l/m 0 min 2 min 0 W/m 39,7 km/h (6 Bft) 97,87 %
04.12.2015 05:00 10,5 C 8,3 C 7,2 C 84 % 15 lf 1019,2 hPa 0,0 l/m 0 min 2 min 0 W/m 37,7 km/h (5 Bft) 100,00 %
04.12.2015 05:02 10,4 C 8,3 C 7,2 C 84 % 15 lf 1019,2 hPa 0,0 l/m 0 min 2 min 0 W/m 41,8 km/h (6 Bft) 97,87 %
04.12.2015 05:04 10,3 C 8,3 C 7,2 C 85 % 15 lf 1019,2 hPa 0,0 l/m 0 min 2 min 0 W/m 31,4 km/h (5 Bft) 100,00 %
04.12.2015 05:06 10,2 C 8,3 C 7,2 C 86 % 15 lf 1019,3 hPa 0,2 l/m 0 min 2 min 0 W/m 54,4 km/h (7 Bft) 96,36 %
04.12.2015 05:08 10,1 C 8,3 C 7,2 C 86 % 15 lf 1019,2 hPa 0,0 l/m 0 min 2 min 0 W/m 27,2 km/h (4 Bft) 97,87 %
04.12.2015 05:10 10,0 C 8,3 C 7,2 C 86 % 15 lf 1019,2 hPa 0,0 l/m 0 min 2 min 0 W/m 29,3 km/h (5 Bft) 97,87 %
04.12.2015 05:12 9,9 C 8,3 C 7,2 C 87 % 15 lf 1019,3 hPa 0,2 l/m 0 min 2 min 0 W/m 35,6 km/h (5 Bft) 97,87 %
04.12.2015 05:14 9,8 C 8,3 C 7,2 C 87 % 15 lf 1019,3 hPa 0,0 l/m 0 min 2 min 0 W/m 41,8 km/h (6 Bft) 97,87 %
04.12.2015 05:16 9,8 C 8,3 C 7,2 C 88 % 15 lf 1019,2 hPa 0,0 l/m 0 min 2 min 0 W/m 33,5 km/h (5 Bft) 97,83 %
04.12.2015 05:18 9,7 C 8,3 C 7,2 C 88 % 15 lf 1019,2 hPa 0,0 l/m 0 min 2 min 0 W/m 31,4 km/h (5 Bft) 97,87 %
04.12.2015 05:20 9,6 C 8,3 C 7,2 C 88 % 15 lf 1019,3 hPa 0,0 l/m 0 min 2 min 0 W/m 29,3 km/h (5 Bft) 97,87 %
04.12.2015 05:22 9,5 C 8,3 C 6,7 C 89 % 15 lf 1019,2 hPa 0,0 l/m 0 min 2 min 0 W/m 27,2 km/h (4 Bft) 95,74 %
04.12.2015 05:24 9,4 C 8,3 C 6,7 C 89 % 15 lf 1019,2 hPa 0,2 l/m 0 min 2 min 0 W/m 33,5 km/h (5 Bft) 95,74 %
04.12.2015 05:26 9,4 C 8,3 C 6,7 C 89 % 15 lf 1019,2 hPa 0,0 l/m 0 min 2 min 0 W/m 33,5 km/h (5 Bft) 95,74 %
04.12.2015 05:28 9,3 C 8,3 C 6,7 C 90 % 15 lf 1019,4 hPa 0,0 l/m 0 min 2 min 0 W/m 35,6 km/h (5 Bft) 93,48 %
04.12.2015 05:30 9,3 C 8,3 C 6,7 C 90 % 15 lf 1019,4 hPa 0,0 l/m 0 min 2 min 0 W/m 25,1 km/h (4 Bft) 95,74 %
04.12.2015 05:32 9,2 C 8,3 C 6,7 C 90 % 15 lf 1019,3 hPa 0,2 l/m 0 min 2 min 0 W/m 33,5 km/h (5 Bft) 95,83 %
04.12.2015 05:34 9,2 C 8,3 C 6,7 C 90 % 15 lf 1019,6 hPa 0,0 l/m 0 min 2 min 0 W/m 27,2 km/h (4 Bft) 97,87 %
04.12.2015 05:36 9,2 C 8,3 C 6,7 C 90 % 15 lf 1019,6 hPa 0,0 l/m 0 min 2 min 0 W/m 31,4 km/h (5 Bft) 97,87 %
04.12.2015 05:38 9,1 C 8,3 C 6,7 C 90 % 15 lf 1019,7 hPa 0,2 l/m 0 min 2 min 0 W/m 31,4 km/h (5 Bft) 93,48 %
04.12.2015 05:40 9,1 C 8,3 C 6,7 C 91 % 15 lf 1019,8 hPa 0,0 l/m 0 min 2 min 0 W/m 31,4 km/h (5 Bft) 93,62 %
04.12.2015 05:42 9,1 C 8,3 C 6,7 C 91 % 15 lf 1019,7 hPa 0,0 l/m 0 min 2 min 0 W/m 16,7 km/h (3 Bft) 91,49 %
04.12.2015 05:44 9,0 C 8,3 C 6,7 C 91 % 15 lf 1019,8 hPa 0,2 l/m 0 min 2 min 0 W/m 29,3 km/h (5 Bft) 95,74 %
04.12.2015 05:46 9,0 C 8,3 C 6,7 C 91 % 15 lf 1019,8 hPa 0,0 l/m 0 min 2 min 0 W/m 25,1 km/h (4 Bft) 95,74 %
04.12.2015 05:48 8,9 C 7,8 C 6,7 C 91 % 15 lf 1019,8 hPa 0,2 l/m 0 min 2 min 0 W/m 29,3 km/h (5 Bft) 95,74 %
04.12.2015 05:50 8,9 C 7,8 C 6,7 C 91 % 15 lf 1019,8 hPa 0,0 l/m 0 min 2 min 0 W/m 27,2 km/h (4 Bft) 95,74 %
04.12.2015 05:52 8,9 C 7,8 C 6,7 C 92 % 15 lf 1019,8 hPa 0,0 l/m 0 min 2 min 0 W/m 27,2 km/h (4 Bft) 91,30 %
04.12.2015 05:54 8,9 C 7,8 C 6,7 C 92 % 15 lf 1019,8 hPa 0,2 l/m 0 min 2 min 0 W/m 25,1 km/h (4 Bft) 91,49 %
04.12.2015 05:56 8,8 C 7,8 C 6,7 C 92 % 15 lf 1019,9 hPa 0,0 l/m 0 min 2 min 0 W/m 29,3 km/h (5 Bft) 93,62 %
04.12.2015 05:58 8,8 C 7,8 C 6,7 C 92 % 15 lf 1019,8 hPa 0,0 l/m 0 min 2 min 0 W/m 23,0 km/h (4 Bft) 93,62 %
04.12.2015 06:00 8,8 C 7,8 C 6,7 C 92 % 15 lf 1019,9 hPa 0,0 l/m 0 min 2 min 0 W/m 25,1 km/h (4 Bft) 95,74 %
04.12.2015 06:02 8,8 C 7,8 C 6,7 C 92 % 15 lf 1019,9 hPa 0,2 l/m 0 min 2 min 0 W/m 39,7 km/h (6 Bft) 93,62 %
04.12.2015 06:04 8,8 C 7,8 C 6,7 C 92 % 15 lf 1019,8 hPa 0,0 l/m 0 min 2 min 0 W/m 20,9 km/h (4 Bft) 93,75 %
04.12.2015 06:06 8,7 C 7,8 C 6,7 C 92 % 15 lf 1019,9 hPa 0,0 l/m 0 min 2 min 0 W/m 33,5 km/h (5 Bft) 91,67 %
04.12.2015 06:08 8,7 C 7,8 C 6,7 C 93 % 15 lf 1019,7 hPa 0,0 l/m 0 min 2 min 0 W/m 18,8 km/h (3 Bft) 93,62 %
04.12.2015 06:10 8,7 C 7,8 C 6,7 C 93 % 15 lf 1019,5 hPa 0,0 l/m 0 min 2 min 0 W/m 37,7 km/h (5 Bft) 91,49 %
04.12.2015 06:12 8,7 C 7,8 C 6,7 C 93 % 15 lf 1019,5 hPa 0,2 l/m 0 min 2 min 0 W/m 29,3 km/h (5 Bft) 89,36 %
04.12.2015 06:14 8,7 C 7,8 C 6,7 C 93 % 15 lf 1019,5 hPa 0,0 l/m 0 min 2 min 0 W/m 27,2 km/h (4 Bft) 91,30 %
04.12.2015 06:16 8,7 C 7,8 C 6,7 C 93 % 15 lf 1019,6 hPa 0,0 l/m 0 min 2 min 0 W/m 20,9 km/h (4 Bft) 91,49 %
04.12.2015 06:18 8,7 C 7,8 C 6,7 C 93 % 15 lf 1019,7 hPa 0,0 l/m 0 min 2 min 0 W/m 23,0 km/h (4 Bft) 91,49 %
04.12.2015 06:20 8,7 C 7,8 C 6,7 C 93 % 15 lf 1019,7 hPa 0,0 l/m 0 min 2 min 0 W/m 25,1 km/h (4 Bft) 89,36 %
04.12.2015 06:22 8,7 C 8,3 C 6,7 C 93 % 15 lf 1019,6 hPa 0,0 l/m 0 min 2 min 0 W/m 18,8 km/h (3 Bft) 91,49 %
04.12.2015 06:24 8,7 C 8,3 C 6,7 C 94 % 15 lf 1019,6 hPa 0,0 l/m 0 min 2 min 0 W/m 35,6 km/h (5 Bft) 93,62 %
04.12.2015 06:26 8,7 C 8,3 C 6,7 C 94 % 15 lf 1019,6 hPa 0,0 l/m 0 min 2 min 0 W/m 33,5 km/h (5 Bft) 91,30 %
04.12.2015 06:28 8,7 C 8,3 C 6,7 C 94 % 15 lf 1019,6 hPa 0,2 l/m 0 min 2 min 0 W/m 27,2 km/h (4 Bft) 91,49 %
04.12.2015 06:30 8,7 C 8,3 C 7,2 C 94 % 15 lf 1019,8 hPa 0,0 l/m 0 min 2 min 0 W/m 20,9 km/h (4 Bft) 89,36 %
04.12.2015 06:32 8,7 C 8,3 C 7,2 C 94 % 15 lf 1019,7 hPa 0,0 l/m 0 min 2 min 0 W/m 27,2 km/h (4 Bft) 97,87 %
04.12.2015 06:34 8,7 C 8,3 C 7,2 C 94 % 15 lf 1019,7 hPa 0,2 l/m 0 min 2 min 0 W/m 25,1 km/h (4 Bft) 93,62 %
04.12.2015 06:36 8,7 C 8,3 C 7,2 C 94 % 15 lf 1019,7 hPa 0,0 l/m 0 min 2 min 0 W/m 29,3 km/h (5 Bft) 95,74 %
04.12.2015 06:38 8,7 C 8,3 C 7,2 C 94 % 15 lf 1019,8 hPa 0,0 l/m 0 min 2 min 0 W/m 31,4 km/h (5 Bft) 89,13 %
04.12.2015 06:40 8,7 C 8,3 C 7,2 C 94 % 15 lf 1019,9 hPa 0,0 l/m 0 min 2 min 0 W/m 27,2 km/h (4 Bft) 93,62 %
04.12.2015 06:42 8,7 C 8,3 C 7,2 C 94 % 15 lf 1019,8 hPa 0,0 l/m 0 min 2 min 0 W/m 20,9 km/h (4 Bft) 95,74 %
04.12.2015 06:44 8,7 C 8,3 C 7,2 C 94 % 15 lf 1019,8 hPa 0,0 l/m 0 min 2 min 0 W/m 18,8 km/h (3 Bft) 95,74 %
04.12.2015 06:46 8,7 C 8,3 C 7,2 C 94 % 15 lf 1019,9 hPa 0,0 l/m 0 min 2 min 0 W/m 23,0 km/h (4 Bft) 89,36 %
04.12.2015 06:48 8,7 C 8,3 C 7,2 C 94 % 15 lf 1019,9 hPa 0,0 l/m 0 min 2 min 0 W/m 31,4 km/h (5 Bft) 93,62 %
04.12.2015 06:50 8,7 C 8,3 C 7,2 C 94 % 15 lf 1019,7 hPa 0,0 l/m 0 min 2 min 0 W/m 27,2 km/h (4 Bft) 95,65 %
04.12.2015 06:52 8,7 C 8,3 C 7,2 C 94 % 15 lf 1019,9 hPa 0,2 l/m 0 min 2 min 0 W/m 16,7 km/h (3 Bft) 97,87 %
04.12.2015 06:54 8,7 C 8,3 C 7,2 C 94 % 15 lf 1019,9 hPa 0,0 l/m 0 min 2 min 0 W/m 29,3 km/h (5 Bft) 97,87 %
04.12.2015 06:56 8,8 C 8,3 C 7,2 C 95 % 15 lf 1019,9 hPa 0,0 l/m 0 min 2 min 0 W/m 31,4 km/h (5 Bft) 93,62 %
04.12.2015 06:58 8,8 C 8,3 C 7,2 C 95 % 15 lf 1020,1 hPa 0,0 l/m 0 min 2 min 0 W/m 25,1 km/h (4 Bft) 100,00 %
04.12.2015 07:00 8,8 C 8,3 C 7,2 C 95 % 15 lf 1020,1 hPa 0,2 l/m 0 min 2 min 0 W/m 20,9 km/h (4 Bft) 100,00 %
04.12.2015 07:02 8,8 C 8,3 C 7,2 C 95 % 15 lf 1020,1 hPa 0,4 l/m 0 min 2 min 0 W/m 14,6 km/h (3 Bft) 94,34 %
04.12.2015 07:04 8,9 C 8,3 C 7,2 C 95 % 15 lf 1020,1 hPa 0,0 l/m 0 min 2 min 0 W/m 25,1 km/h (4 Bft) 97,87 %
04.12.2015 07:06 8,8 C 8,3 C 7,2 C 95 % 15 lf 1020,1 hPa 0,2 l/m 0 min 2 min 0 W/m 27,2 km/h (4 Bft) 96,00 %
04.12.2015 07:08 8,9 C 8,3 C 7,2 C 95 % 15 lf 1020,2 hPa 0,0 l/m 0 min 2 min 0 W/m 27,2 km/h (4 Bft) 97,87 %
04.12.2015 07:10 8,9 C 8,3 C 7,2 C 95 % 15 lf 1020,3 hPa 0,4 l/m 0 min 2 min 0 W/m 29,3 km/h (5 Bft) 97,87 %
04.12.2015 07:12 8,9 C 8,3 C 7,2 C 95 % 15 lf 1020,3 hPa 0,0 l/m 0 min 2 min 0 W/m 29,3 km/h (5 Bft) 100,00 %
04.12.2015 07:14 8,9 C 8,3 C 7,2 C 95 % 15 lf 1020,4 hPa 0,2 l/m 0 min 2 min 0 W/m 23,0 km/h (4 Bft) 100,00 %
04.12.2015 07:16 8,9 C 8,3 C 7,2 C 95 % 15 lf 1020,4 hPa 0,0 l/m 0 min 2 min 0 W/m 23,0 km/h (4 Bft) 97,87 %
04.12.2015 07:18 8,9 C 8,3 C 7,2 C 95 % 15 lf 1020,5 hPa 0,0 l/m 0 min 2 min 0 W/m 23,0 km/h (4 Bft) 95,74 %
04.12.2015 07:20 8,9 C 8,3 C 7,2 C 95 % 15 lf 1020,6 hPa 0,0 l/m 0 min 2 min 0 W/m 31,4 km/h (5 Bft) 97,87 %
04.12.2015 07:22 8,9 C 8,3 C 7,2 C 95 % 15 lf 1020,6 hPa 0,0 l/m 0 min 2 min 0 W/m 23,0 km/h (4 Bft) 97,87 %
04.12.2015 07:24 8,9 C 8,3 C 7,2 C 95 % 15 lf 1020,7 hPa 0,0 l/m 0 min 2 min 0 W/m 29,3 km/h (5 Bft) 100,00 %
04.12.2015 07:26 8,9 C 8,3 C 7,2 C 95 % 15 lf 1020,8 hPa 0,2 l/m 0 min 2 min 0 W/m 25,1 km/h (4 Bft) 100,00 %
04.12.2015 07:28 8,9 C 8,3 C 7,2 C 95 % 15 lf 1020,8 hPa 0,0 l/m 0 min 2 min 0 W/m 20,9 km/h (4 Bft) 100,00 %
04.12.2015 07:30 8,9 C 8,3 C 7,2 C 95 % 15 lf 1020,9 hPa 0,0 l/m 0 min 2 min 0 W/m 23,0 km/h (4 Bft) 97,87 %
04.12.2015 07:32 8,9 C 8,3 C 7,2 C 95 % 15 lf 1021,0 hPa 0,0 l/m 0 min 2 min 0 W/m 18,8 km/h (3 Bft) 97,87 %
04.12.2015 07:34 8,9 C 8,3 C 7,2 C 95 % 15 lf 1021,0 hPa 0,0 l/m 0 min 2 min 0 W/m 23,0 km/h (4 Bft) 100,00 %
04.12.2015 07:36 8,9 C 8,3 C 7,2 C 95 % 15 lf 1021,0 hPa 0,0 l/m 0 min 2 min 0 W/m 27,2 km/h (4 Bft) 100,00 %
04.12.2015 07:38 8,9 C 8,9 C 7,2 C 95 % 15 lf 1021,1 hPa 0,0 l/m 0 min 2 min 0 W/m 29,3 km/h (5 Bft) 100,00 %
04.12.2015 07:40 8,9 C 8,9 C 7,2 C 95 % 15 lf 1021,1 hPa 0,0 l/m 0 min 2 min 0 W/m 25,1 km/h (4 Bft) 100,00 %
04.12.2015 07:42 9,0 C 8,9 C 7,2 C 96 % 15 lf 1021,1 hPa 0,2 l/m 0 min 2 min 0 W/m 29,3 km/h (5 Bft) 97,87 %
04.12.2015 07:44 9,0 C 8,9 C 7,2 C 96 % 15 lf 1021,1 hPa 0,0 l/m 0 min 2 min 0 W/m 18,8 km/h (3 Bft) 97,87 %
04.12.2015 07:46 9,0 C 8,9 C 7,2 C 96 % 15 lf 1021,2 hPa 0,0 l/m 0 min 2 min 0 W/m 29,3 km/h (5 Bft) 97,87 %
04.12.2015 07:48 9,0 C 8,9 C 7,2 C 96 % 15 lf 1021,3 hPa 0,0 l/m 0 min 2 min 0 W/m 27,2 km/h (4 Bft) 100,00 %
04.12.2015 07:50 9,0 C 8,9 C 7,2 C 96 % 15 lf 1021,3 hPa 0,0 l/m 0 min 2 min 0 W/m 35,6 km/h (5 Bft) 95,74 %
04.12.2015 07:52 9,0 C 8,9 C 7,2 C 96 % 15 lf 1021,5 hPa 0,0 l/m 0 min 2 min 0 W/m 35,6 km/h (5 Bft) 100,00 %
04.12.2015 07:54 9,0 C 8,9 C 7,2 C 96 % 15 lf 1021,5 hPa 0,0 l/m 0 min 2 min 0 W/m 20,9 km/h (4 Bft) 95,74 %
04.12.2015 07:56 9,1 C 8,9 C 7,2 C 96 % 15 lf 1021,6 hPa 0,0 l/m 0 min 2 min 0 W/m 25,1 km/h (4 Bft) 100,00 %
04.12.2015 07:58 9,1 C 8,9 C 7,2 C 96 % 15 lf 1021,5 hPa 0,0 l/m 0 min 2 min 0 W/m 25,1 km/h (4 Bft) 97,87 %
04.12.2015 08:00 9,1 C 8,9 C 7,2 C 96 % 15 lf 1021,6 hPa 0,0 l/m 0 min 2 min 0 W/m 20,9 km/h (4 Bft) 95,65 %
04.12.2015 08:02 9,1 C 8,9 C 7,2 C 96 % 15 lf 1021,6 hPa 0,0 l/m 0 min 2 min 0 W/m 25,1 km/h (4 Bft) 100,00 %
04.12.2015 08:04 9,1 C 8,9 C 7,2 C 96 % 15 lf 1021,7 hPa 0,2 l/m 0 min 2 min 0 W/m 31,4 km/h (5 Bft) 97,87 %
04.12.2015 08:06 9,1 C 8,9 C 7,8 C 96 % 15 lf 1021,7 hPa 0,0 l/m 0 min 2 min 0 W/m 31,4 km/h (5 Bft) 97,22 %
04.12.2015 08:08 9,1 C 8,9 C 7,8 C 96 % 15 lf 1021,7 hPa 0,0 l/m 0 min 2 min 0 W/m 29,3 km/h (5 Bft) 97,87 %
04.12.2015 08:10 9,1 C 8,9 C 7,8 C 96 % 15 lf 1021,8 hPa 0,0 l/m 0 min 2 min 0 W/m 29,3 km/h (5 Bft) 95,65 %
04.12.2015 08:12 9,1 C 8,9 C 7,8 C 96 % 15 lf 1021,8 hPa 0,0 l/m 0 min 2 min 0 W/m 27,2 km/h (4 Bft) 93,62 %
04.12.2015 08:14 9,1 C 8,9 C 7,8 C 96 % 15 lf 1021,8 hPa 0,0 l/m 0 min 2 min 0 W/m 31,4 km/h (5 Bft) 97,87 %
04.12.2015 08:16 9,1 C 8,9 C 7,8 C 96 % 15 lf 1021,9 hPa 0,0 l/m 0 min 2 min 0 W/m 27,2 km/h (4 Bft) 95,74 %
04.12.2015 08:18 9,1 C 8,9 C 7,8 C 96 % 15 lf 1021,9 hPa 0,0 l/m 0 min 0 min 0 W/m 25,1 km/h (4 Bft) 95,74 %
04.12.2015 08:20 9,1 C 8,9 C 7,8 C 96 % 15 lf 1021,9 hPa 0,0 l/m 0 min 0 min 0 W/m 27,2 km/h (4 Bft) 97,87 %
04.12.2015 08:22 9,1 C 8,9 C 7,8 C 96 % 15 lf 1022,1 hPa 0,0 l/m 0 min 2 min 0 W/m 23,0 km/h (4 Bft) 97,83 %
04.12.2015 08:24 9,1 C 8,9 C 7,8 C 96 % 15 lf 1022,1 hPa 0,0 l/m 0 min 2 min 0 W/m 31,4 km/h (5 Bft) 95,74 %
04.12.2015 08:26 9,1 C 8,9 C 7,8 C 96 % 15 lf 1022,1 hPa 0,0 l/m 0 min 2 min 0 W/m 23,0 km/h (4 Bft) 95,74 %
04.12.2015 08:28 9,1 C 8,9 C 7,8 C 96 % 15 lf 1022,2 hPa 0,0 l/m 0 min 2 min 0 W/m 33,5 km/h (5 Bft) 93,62 %
04.12.2015 08:30 9,1 C 8,9 C 7,8 C 96 % 15 lf 1022,3 hPa 0,0 l/m 0 min 0 min 0 W/m 25,1 km/h (4 Bft) 95,74 %
04.12.2015 08:32 9,1 C 8,9 C 7,8 C 96 % 15 lf 1022,5 hPa 0,0 l/m 0 min 0 min 0 W/m 27,2 km/h (4 Bft) 95,74 %
04.12.2015 08:34 9,1 C 8,9 C 7,8 C 96 % 15 lf 1022,6 hPa 0,0 l/m 0 min 2 min 0 W/m 31,4 km/h (5 Bft) 95,65 %
04.12.2015 08:36 9,1 C 8,9 C 7,8 C 96 % 15 lf 1022,6 hPa 0,0 l/m 0 min 0 min 0 W/m 29,3 km/h (5 Bft) 93,62 %
04.12.2015 08:38 9,1 C 8,9 C 7,8 C 96 % 15 lf 1022,6 hPa 0,0 l/m 0 min 0 min 0 W/m 25,1 km/h (4 Bft) 93,62 %
04.12.2015 08:40 9,1 C 8,9 C 7,8 C 96 % 15 lf 1022,7 hPa 0,0 l/m 0 min 0 min 0 W/m 29,3 km/h (5 Bft) 89,36 %
04.12.2015 08:42 9,2 C 8,9 C 7,8 C 96 % 15 lf 1022,7 hPa 0,0 l/m 0 min 0 min 0 W/m 29,3 km/h (5 Bft) 95,74 %
04.12.2015 08:44 9,2 C 8,9 C 7,8 C 96 % 15 lf 1022,7 hPa 0,0 l/m 0 min 0 min 0 W/m 31,4 km/h (5 Bft) 95,74 %
04.12.2015 08:46 9,2 C 8,9 C 7,8 C 96 % 15 lf 1022,7 hPa 0,0 l/m 0 min 0 min 0 W/m 29,3 km/h (5 Bft) 97,83 %
04.12.2015 08:48 9,2 C 8,9 C 7,8 C 96 % 15 lf 1022,8 hPa 0,0 l/m 0 min 0 min 0 W/m 31,4 km/h (5 Bft) 97,87 %
04.12.2015 08:50 9,2 C 8,9 C 7,8 C 96 % 15 lf 1022,8 hPa 0,0 l/m 0 min 0 min 0 W/m 33,5 km/h (5 Bft) 97,87 %
04.12.2015 08:52 9,2 C 8,9 C 7,8 C 96 % 15 lf 1022,9 hPa 0,0 l/m 0 min 0 min 0 W/m 25,1 km/h (4 Bft) 95,74 %
04.12.2015 08:54 9,2 C 8,9 C 7,8 C 96 % 15 lf 1022,9 hPa 0,0 l/m 0 min 0 min 0 W/m 16,7 km/h (3 Bft) 97,87 %
04.12.2015 08:56 9,2 C 8,9 C 7,8 C 96 % 15 lf 1023,0 hPa 0,0 l/m 0 min 0 min 0 W/m 18,8 km/h (3 Bft) 95,74 %
04.12.2015 08:58 9,2 C 8,9 C 7,8 C 97 % 15 lf 1023,0 hPa 0,0 l/m 0 min 2 min 0 W/m 23,0 km/h (4 Bft) 97,83 %
04.12.2015 09:00 9,2 C 8,9 C 7,8 C 97 % 15 lf 1023,1 hPa 0,0 l/m 0 min 0 min 0 W/m 29,3 km/h (5 Bft) 93,62 %
04.12.2015 09:02 9,2 C 8,9 C 7,8 C 97 % 15 lf 1023,2 hPa 0,0 l/m 0 min 0 min 0 W/m 29,3 km/h (5 Bft) 91,49 %
04.12.2015 09:04 9,2 C 8,9 C 7,8 C 97 % 15 lf 1023,3 hPa 0,0 l/m 0 min 2 min 0 W/m 25,1 km/h (4 Bft) 93,62 %
04.12.2015 09:06 9,3 C 8,9 C 7,8 C 97 % 15 lf 1023,3 hPa 0,0 l/m 0 min 2 min 0 W/m 25,1 km/h (4 Bft) 92,59 %
04.12.2015 09:08 9,3 C 8,9 C 7,8 C 97 % 15 lf 1023,4 hPa 0,0 l/m 0 min 0 min 0 W/m 20,9 km/h (4 Bft) 93,62 %
04.12.2015 09:10 9,3 C 8,9 C 7,8 C 97 % 15 lf 1023,4 hPa 0,0 l/m 0 min 0 min 0 W/m 18,8 km/h (3 Bft) 95,65 %
04.12.2015 09:12 9,3 C 8,9 C 7,8 C 96 % 15 lf 1023,5 hPa 0,0 l/m 0 min 0 min 2 W/m 29,3 km/h (5 Bft) 89,36 %
04.12.2015 09:14 9,3 C 8,9 C 7,8 C 97 % 15 lf 1023,6 hPa 0,0 l/m 0 min 0 min 5 W/m 12,6 km/h (3 Bft) 95,74 %
04.12.2015 09:16 9,3 C 8,9 C 7,8 C 97 % 15 lf 1023,7 hPa 0,0 l/m 0 min 0 min 6 W/m 16,7 km/h (3 Bft) 95,74 %
04.12.2015 09:18 9,3 C 8,9 C 7,8 C 97 % 15 lf 1023,7 hPa 0,0 l/m 0 min 0 min 5 W/m 12,6 km/h (3 Bft) 91,49 %
04.12.2015 09:20 9,3 C 8,9 C 7,8 C 97 % 15 lf 1023,7 hPa 0,0 l/m 0 min 0 min 6 W/m 25,1 km/h (4 Bft) 87,23 %
04.12.2015 09:22 9,3 C 8,9 C 7,8 C 97 % 15 lf 1023,7 hPa 0,0 l/m 0 min 0 min 9 W/m 16,7 km/h (3 Bft) 95,65 %
04.12.2015 09:24 9,3 C 8,9 C 7,8 C 97 % 15 lf 1023,9 hPa 0,0 l/m 0 min 0 min 12 W/m 14,6 km/h (3 Bft) 95,74 %
04.12.2015 09:26 9,3 C 9,4 C 7,8 C 97 % 15 lf 1023,9 hPa 0,0 l/m 0 min 0 min 16 W/m 14,6 km/h (3 Bft) 95,74 %
04.12.2015 09:28 9,3 C 9,4 C 7,8 C 97 % 15 lf 1024,0 hPa 0,0 l/m 0 min 0 min 16 W/m 16,7 km/h (3 Bft) 93,62 %
04.12.2015 09:30 9,3 C 9,4 C 7,8 C 97 % 15 lf 1024,1 hPa 0,0 l/m 0 min 0 min 17 W/m 12,6 km/h (3 Bft) 95,74 %
04.12.2015 09:32 9,3 C 9,4 C 7,8 C 97 % 15 lf 1024,0 hPa 0,0 l/m 0 min 0 min 20 W/m 18,8 km/h (3 Bft) 87,23 %
04.12.2015 09:34 9,3 C 9,4 C 7,8 C 97 % 15 lf 1024,2 hPa 0,0 l/m 0 min 0 min 20 W/m 14,6 km/h (3 Bft) 95,74 %
04.12.2015 09:36 9,3 C 9,4 C 7,8 C 97 % 15 lf 1024,3 hPa 0,0 l/m 0 min 0 min 22 W/m 12,6 km/h (3 Bft) 93,62 %
04.12.2015 09:38 9,3 C 9,4 C 7,8 C 97 % 15 lf 1024,2 hPa 0,0 l/m 0 min 0 min 22 W/m 16,7 km/h (3 Bft) 93,62 %
04.12.2015 09:40 9,4 C 9,4 C 7,8 C 97 % 15 lf 1024,4 hPa 0,0 l/m 0 min 0 min 23 W/m 20,9 km/h (4 Bft) 95,74 %
04.12.2015 09:42 9,4 C 9,4 C 7,8 C 97 % 15 lf 1024,5 hPa 0,0 l/m 0 min 0 min 27 W/m 16,7 km/h (3 Bft) 95,74 %
04.12.2015 09:44 9,4 C 9,4 C 7,8 C 97 % 15 lf 1024,5 hPa 0,0 l/m 0 min 0 min 22 W/m 14,6 km/h (3 Bft) 95,65 %
04.12.2015 09:46 9,4 C 9,4 C 7,8 C 97 % 15 lf 1024,6 hPa 0,0 l/m 0 min 0 min 15 W/m 14,6 km/h (3 Bft) 93,62 %
04.12.2015 09:48 9,4 C 9,4 C 7,8 C 97 % 15 lf 1024,6 hPa 0,0 l/m 0 min 0 min 11 W/m 16,7 km/h (3 Bft) 93,62 %
04.12.2015 09:50 9,4 C 9,4 C 7,8 C 97 % 15 lf 1024,6 hPa 0,0 l/m 0 min 0 min 11 W/m 18,8 km/h (3 Bft) 95,74 %
04.12.2015 09:52 9,4 C 9,4 C 7,8 C 97 % 15 lf 1024,6 hPa 0,0 l/m 0 min 0 min 11 W/m 14,6 km/h (3 Bft) 93,75 %
04.12.2015 09:54 9,4 C 9,4 C 7,8 C 97 % 15 lf 1024,7 hPa 0,0 l/m 0 min 0 min 12 W/m 14,6 km/h (3 Bft) 97,87 %
04.12.2015 09:56 9,4 C 8,9 C 7,8 C 97 % 15 lf 1024,7 hPa 0,0 l/m 0 min 0 min 12 W/m 18,8 km/h (3 Bft) 97,83 %
04.12.2015 09:58 9,4 C 8,9 C 7,8 C 97 % 15 lf 1024,7 hPa 0,0 l/m 0 min 0 min 14 W/m 27,2 km/h (4 Bft) 97,87 %
04.12.2015 10:00 9,3 C 8,9 C 7,8 C 97 % 15 lf 1024,7 hPa 0,0 l/m 0 min 0 min 15 W/m 16,7 km/h (3 Bft) 89,36 %
04.12.2015 10:02 9,3 C 8,9 C 7,8 C 97 % 15 lf 1024,9 hPa 0,0 l/m 0 min 0 min 18 W/m 14,6 km/h (3 Bft) 91,67 %
04.12.2015 10:04 9,3 C 8,9 C 7,8 C 97 % 15 lf 1024,9 hPa 0,0 l/m 0 min 0 min 18 W/m 20,9 km/h (4 Bft) 95,74 %
04.12.2015 10:06 9,3 C 8,9 C 7,8 C 97 % 15 lf 1025,0 hPa 0,0 l/m 0 min 0 min 22 W/m 23,0 km/h (4 Bft) 95,74 %
04.12.2015 10:08 9,2 C 8,9 C 7,2 C 97 % 15 lf 1025,0 hPa 0,0 l/m 0 min 0 min 23 W/m 20,9 km/h (4 Bft) 95,65 %
04.12.2015 10:10 9,2 C 8,9 C 7,2 C 97 % 15 lf 1025,1 hPa 0,0 l/m 0 min 0 min 25 W/m 18,8 km/h (3 Bft) 89,36 %
04.12.2015 10:12 9,2 C 8,9 C 7,2 C 97 % 15 lf 1025,1 hPa 0,0 l/m 0 min 0 min 43 W/m 16,7 km/h (3 Bft) 95,74 %
04.12.2015 10:14 9,2 C 9,4 C 7,8 C 97 % 15 lf 1025,2 hPa 0,0 l/m 0 min 0 min 82 W/m 16,7 km/h (3 Bft) 95,74 %
04.12.2015 10:16 9,2 C 9,4 C 7,8 C 97 % 15 lf 1025,2 hPa 0,0 l/m 2 min 0 min 117 W/m 12,6 km/h (3 Bft) 93,62 %
04.12.2015 10:18 9,2 C 9,4 C 7,8 C 97 % 15 lf 1025,3 hPa 0,0 l/m 2 min 0 min 108 W/m 20,9 km/h (4 Bft) 95,74 %
04.12.2015 10:20 9,2 C 9,4 C 7,8 C 97 % 15 lf 1025,3 hPa 0,0 l/m 0 min 0 min 59 W/m 10,5 km/h (2 Bft) 95,65 %
04.12.2015 10:22 9,2 C 9,4 C 7,8 C 97 % 15 lf 1025,4 hPa 0,0 l/m 0 min 0 min 51 W/m 16,7 km/h (3 Bft) 97,87 %
04.12.2015 10:24 9,2 C 9,4 C 7,8 C 97 % 15 lf 1025,4 hPa 0,0 l/m 0 min 0 min 60 W/m 18,8 km/h (3 Bft) 97,87 %
04.12.2015 10:26 9,2 C 9,4 C 7,8 C 97 % 15 lf 1025,5 hPa 0,0 l/m 0 min 0 min 61 W/m 18,8 km/h (3 Bft) 97,87 %
04.12.2015 10:28 9,2 C 9,4 C 7,8 C 97 % 15 lf 1025,5 hPa 0,0 l/m 0 min 0 min 69 W/m 18,8 km/h (3 Bft) 95,74 %
04.12.2015 10:30 9,2 C 9,4 C 7,8 C 97 % 15 lf 1025,6 hPa 0,0 l/m 0 min 0 min 56 W/m 14,6 km/h (3 Bft) 93,62 %
04.12.2015 10:32 9,2 C 9,4 C 7,8 C 97 % 15 lf 1025,6 hPa 0,0 l/m 0 min 0 min 48 W/m 8,4 km/h (2 Bft) 97,87 %
04.12.2015 10:34 9,2 C 9,4 C 7,8 C 97 % 15 lf 1025,7 hPa 0,0 l/m 0 min 0 min 52 W/m 14,6 km/h (3 Bft) 95,74 %
04.12.2015 10:36 9,2 C 9,4 C 7,8 C 97 % 15 lf 1025,7 hPa 0,0 l/m 0 min 0 min 53 W/m 14,6 km/h (3 Bft) 97,87 %
04.12.2015 10:38 9,3 C 9,4 C 7,8 C 97 % 15 lf 1025,8 hPa 0,0 l/m 0 min 0 min 42 W/m 10,5 km/h (2 Bft) 100,00 %
04.12.2015 10:40 9,3 C 9,4 C 7,8 C 97 % 15 lf 1025,9 hPa 0,0 l/m 0 min 0 min 40 W/m 4,2 km/h (1 Bft) 95,74 %
04.12.2015 10:42 9,3 C 9,4 C 7,8 C 97 % 15 lf 1025,9 hPa 0,0 l/m 0 min 0 min 47 W/m 8,4 km/h (2 Bft) 97,83 %
04.12.2015 10:44 9,3 C 9,4 C 8,3 C 97 % 15 lf 1026,0 hPa 0,0 l/m 0 min 0 min 50 W/m 10,5 km/h (2 Bft) 100,00 %
04.12.2015 10:46 9,3 C 9,4 C 7,8 C 97 % 15 lf 1026,0 hPa 0,0 l/m 0 min 0 min 45 W/m 8,4 km/h (2 Bft) 100,00 %
04.12.2015 10:48 9,3 C 9,4 C 7,8 C 97 % 15 lf 1026,0 hPa 0,0 l/m 0 min 0 min 39 W/m 12,6 km/h (3 Bft) 97,87 %
04.12.2015 10:50 9,3 C 9,4 C 7,8 C 97 % 15 lf 1026,1 hPa 0,0 l/m 0 min 0 min 32 W/m 10,5 km/h (2 Bft) 97,87 %
04.12.2015 10:52 9,3 C 9,4 C 7,8 C 97 % 15 lf 1026,1 hPa 0,0 l/m 0 min 0 min 26 W/m 16,7 km/h (3 Bft) 100,00 %
04.12.2015 10:54 9,3 C 8,9 C 7,8 C 97 % 15 lf 1026,1 hPa 0,0 l/m 0 min 2 min 23 W/m 16,7 km/h (3 Bft) 100,00 %
04.12.2015 10:56 9,2 C 8,9 C 7,8 C 97 % 15 lf 1026,2 hPa 0,0 l/m 0 min 0 min 20 W/m 8,4 km/h (2 Bft) 97,87 %
04.12.2015 10:58 9,2 C 8,9 C 7,8 C 97 % 15 lf 1026,2 hPa 0,0 l/m 0 min 0 min 24 W/m 16,7 km/h (3 Bft) 91,49 %
04.12.2015 11:00 9,2 C 8,9 C 7,8 C 97 % 15 lf 1026,4 hPa 0,0 l/m 0 min 0 min 34 W/m 14,6 km/h (3 Bft) 93,62 %
04.12.2015 11:02 9,2 C 8,9 C 7,8 C 97 % 15 lf 1026,4 hPa 0,0 l/m 0 min 0 min 47 W/m 18,8 km/h (3 Bft) 97,87 %
04.12.2015 11:04 9,1 C 8,9 C 7,8 C 97 % 14 lf 1026,4 hPa 0,0 l/m 0 min 0 min 51 W/m 12,6 km/h (3 Bft) 100,00 %
04.12.2015 11:06 9,1 C 8,9 C 7,8 C 97 % 14 lf 1026,5 hPa 0,0 l/m 0 min 0 min 57 W/m 20,9 km/h (4 Bft) 97,87 %
04.12.2015 11:08 9,1 C 8,9 C 7,8 C 97 % 14 lf 1026,5 hPa 0,0 l/m 0 min 0 min 76 W/m 14,6 km/h (3 Bft) 97,87 %
04.12.2015 11:10 9,1 C 9,4 C 7,8 C 97 % 13 lf 1026,6 hPa 0,0 l/m 0 min 0 min 82 W/m 14,6 km/h (3 Bft) 95,74 %
04.12.2015 11:12 9,1 C 9,4 C 7,8 C 97 % 13 lf 1026,7 hPa 0,0 l/m 0 min 0 min 109 W/m 18,8 km/h (3 Bft) 100,00 %
04.12.2015 11:14 9,0 C 9,4 C 7,8 C 97 % 12 lf 1026,7 hPa 0,0 l/m 0 min 0 min 124 W/m 20,9 km/h (4 Bft) 95,65 %
04.12.2015 11:16 8,9 C 9,4 C 7,2 C 97 % 12 lf 1026,9 hPa 0,0 l/m 0 min 0 min 111 W/m 18,8 km/h (3 Bft) 97,87 %
04.12.2015 11:18 8,9 C 11,1 C 7,2 C 96 % 11 lf 1026,8 hPa 0,0 l/m 0 min 0 min 130 W/m 16,7 km/h (3 Bft) 93,62 %
04.12.2015 11:20 8,9 C 12,8 C 7,2 C 96 % 10 lf 1026,8 hPa 0,0 l/m 2 min 0 min 180 W/m 16,7 km/h (3 Bft) 97,87 %
04.12.2015 11:22 8,9 C 13,3 C 7,8 C 96 % 10 lf 1026,9 hPa 0,0 l/m 2 min 0 min 266 W/m 10,5 km/h (2 Bft) 95,74 %
04.12.2015 11:24 8,9 C 12,2 C 7,8 C 96 % 9 lf 1026,9 hPa 0,0 l/m 2 min 0 min 188 W/m 10,5 km/h (2 Bft) 97,87 %
04.12.2015 11:26 8,9 C 11,7 C 7,8 C 96 % 8 lf 1026,9 hPa 0,0 l/m 2 min 0 min 141 W/m 18,8 km/h (3 Bft) 95,65 %
04.12.2015 11:28 8,9 C 10,6 C 7,8 C 96 % 7 lf 1026,9 hPa 0,0 l/m 0 min 0 min 120 W/m 12,6 km/h (3 Bft) 95,74 %
04.12.2015 11:30 9,0 C 10,0 C 7,2 C 96 % 7 lf 1026,9 hPa 0,0 l/m 0 min 0 min 101 W/m 18,8 km/h (3 Bft) 97,87 %
04.12.2015 11:32 8,9 C 10,0 C 7,2 C 96 % 5 lf 1027,0 hPa 0,0 l/m 0 min 0 min 103 W/m 18,8 km/h (3 Bft) 97,87 %
04.12.2015 11:34 9,0 C 9,4 C 7,2 C 96 % 4 lf 1027,0 hPa 0,0 l/m 0 min 0 min 111 W/m 18,8 km/h (3 Bft) 95,74 %
04.12.2015 11:36 9,0 C 9,4 C 7,8 C 95 % 4 lf 1027,1 hPa 0,0 l/m 0 min 0 min 124 W/m 16,7 km/h (3 Bft) 95,74 %
04.12.2015 11:38 9,0 C 9,4 C 7,8 C 95 % 4 lf 1027,1 hPa 0,0 l/m 0 min 0 min 127 W/m 14,6 km/h (3 Bft) 95,65 %
04.12.2015 11:40 9,0 C 9,4 C 7,8 C 95 % 3 lf 1027,1 hPa 0,0 l/m 0 min 0 min 132 W/m 18,8 km/h (3 Bft) 93,62 %
04.12.2015 11:42 9,1 C 10,0 C 7,8 C 95 % 3 lf 1027,0 hPa 0,0 l/m 0 min 0 min 120 W/m 14,6 km/h (3 Bft) 95,74 %
04.12.2015 11:44 9,1 C 10,0 C 7,8 C 95 % 3 lf 1027,0 hPa 0,0 l/m 0 min 0 min 111 W/m 14,6 km/h (3 Bft) 95,74 %
04.12.2015 11:46 9,1 C 10,0 C 7,8 C 94 % 2 lf 1027,1 hPa 0,0 l/m 0 min 0 min 87 W/m 14,6 km/h (3 Bft) 97,87 %
04.12.2015 11:48 9,2 C 10,0 C 7,8 C 94 % 2 lf 1027,1 hPa 0,0 l/m 0 min 0 min 107 W/m 16,7 km/h (3 Bft) 95,74 %
04.12.2015 11:50 9,2 C 10,0 C 7,8 C 94 % 1 lf 1027,1 hPa 0,0 l/m 0 min 0 min 138 W/m 20,9 km/h (4 Bft) 95,65 %
04.12.2015 11:52 9,2 C 10,0 C 7,8 C 94 % 1 lf 1027,2 hPa 0,0 l/m 2 min 0 min 141 W/m 14,6 km/h (3 Bft) 93,62 %
04.12.2015 11:54 9,3 C 10,0 C 7,8 C 94 % 1 lf 1027,2 hPa 0,0 l/m 0 min 0 min 131 W/m 16,7 km/h (3 Bft) 95,74 %
04.12.2015 11:56 9,3 C 10,6 C 7,8 C 94 % 1 lf 1027,2 hPa 0,0 l/m 0 min 0 min 130 W/m 18,8 km/h (3 Bft) 93,62 %
04.12.2015 11:58 9,3 C 10,6 C 7,8 C 93 % 0 lf 1027,2 hPa 0,0 l/m 2 min 0 min 160 W/m 18,8 km/h (3 Bft) 93,62 %
04.12.2015 12:00 9,3 C 10,6 C 7,8 C 93 % 0 lf 1027,2 hPa 0,0 l/m 2 min 0 min 142 W/m 18,8 km/h (3 Bft) 93,62 %
04.12.2015 12:02 9,4 C 10,6 C 7,8 C 93 % 0 lf 1027,3 hPa 0,0 l/m 0 min 0 min 139 W/m 12,6 km/h (3 Bft) 97,14 %
04.12.2015 12:04 9,4 C 10,0 C 7,8 C 93 % 0 lf 1027,2 hPa 0,0 l/m 0 min 0 min 135 W/m 14,6 km/h (3 Bft) 93,48 %
04.12.2015 12:06 9,4 C 10,6 C 8,3 C 93 % 0 lf 1027,2 hPa 0,0 l/m 2 min 0 min 169 W/m 18,8 km/h (3 Bft) 95,74 %
04.12.2015 12:08 9,4 C 11,7 C 8,3 C 93 % 0 lf 1027,2 hPa 0,0 l/m 2 min 0 min 177 W/m 14,6 km/h (3 Bft) 95,74 %
04.12.2015 12:10 9,5 C 12,2 C 8,3 C 93 % 0 lf 1027,1 hPa 0,0 l/m 2 min 0 min 204 W/m 25,1 km/h (4 Bft) 93,62 %
04.12.2015 12:12 9,6 C 13,9 C 8,9 C 93 % 0 lf 1027,2 hPa 0,0 l/m 2 min 0 min 329 W/m 18,8 km/h (3 Bft) 91,49 %
04.12.2015 12:14 9,6 C 14,4 C 8,9 C 93 % 0 lf 1027,2 hPa 0,0 l/m 2 min 0 min 319 W/m 20,9 km/h (4 Bft) 97,87 %
04.12.2015 12:16 9,7 C 13,9 C 8,9 C 92 % 0 lf 1027,2 hPa 0,0 l/m 2 min 0 min 299 W/m 25,1 km/h (4 Bft) 86,96 %
04.12.2015 12:18 9,7 C 13,3 C 8,9 C 92 % 0 lf 1027,3 hPa 0,0 l/m 2 min 0 min 280 W/m 20,9 km/h (4 Bft) 91,49 %
04.12.2015 12:20 9,7 C 12,2 C 8,9 C 91 % 0 lf 1027,4 hPa 0,0 l/m 2 min 0 min 271 W/m 16,7 km/h (3 Bft) 93,62 %
04.12.2015 12:22 9,7 C 12,8 C 8,9 C 91 % 0 lf 1027,4 hPa 0,0 l/m 2 min 0 min 264 W/m 25,1 km/h (4 Bft) 93,62 %
04.12.2015 12:24 9,8 C 12,2 C 8,9 C 90 % 0 lf 1027,4 hPa 0,0 l/m 2 min 0 min 258 W/m 20,9 km/h (4 Bft) 93,62 %
04.12.2015 12:26 9,8 C 12,2 C 8,9 C 90 % 0 lf 1027,4 hPa 0,0 l/m 2 min 0 min 261 W/m 16,7 km/h (3 Bft) 95,74 %
04.12.2015 12:28 9,8 C 12,8 C 8,9 C 90 % 0 lf 1027,4 hPa 0,0 l/m 2 min 0 min 254 W/m 14,6 km/h (3 Bft) 97,83 %
04.12.2015 12:30 9,9 C 12,8 C 8,9 C 89 % 0 lf 1027,4 hPa 0,0 l/m 2 min 0 min 236 W/m 20,9 km/h (4 Bft) 95,74 %
04.12.2015 12:32 9,9 C 12,8 C 8,9 C 89 % 0 lf 1027,4 hPa 0,0 l/m 2 min 0 min 276 W/m 20,9 km/h (4 Bft) 96,23 %
04.12.2015 12:34 9,9 C 12,8 C 8,9 C 89 % 0 lf 1027,4 hPa 0,0 l/m 2 min 0 min 296 W/m 20,9 km/h (4 Bft) 97,87 %
04.12.2015 12:36 9,9 C 12,8 C 8,9 C 88 % 0 lf 1027,4 hPa 0,0 l/m 2 min 0 min 299 W/m 16,7 km/h (3 Bft) 96,00 %
04.12.2015 12:38 9,9 C 13,9 C 8,9 C 88 % 0 lf 1027,6 hPa 0,0 l/m 2 min 0 min 159 W/m 14,6 km/h (3 Bft) 97,87 %
04.12.2015 12:40 9,9 C 13,9 C 8,9 C 88 % 0 lf 1027,7 hPa 0,0 l/m 2 min 0 min 318 W/m 18,8 km/h (3 Bft) 95,65 %
04.12.2015 12:42 10,0 C 13,9 C 8,9 C 88 % 0 lf 1027,6 hPa 0,0 l/m 2 min 0 min 193 W/m 16,7 km/h (3 Bft) 91,49 %
04.12.2015 12:44 10,0 C 13,3 C 8,9 C 87 % 0 lf 1027,7 hPa 0,0 l/m 0 min 0 min 124 W/m 14,6 km/h (3 Bft) 97,87 %
04.12.2015 12:46 10,0 C 12,8 C 8,9 C 87 % 0 lf 1027,7 hPa 0,0 l/m 0 min 0 min 96 W/m 23,0 km/h (4 Bft) 97,87 %
04.12.2015 12:48 10,0 C 13,9 C 8,9 C 87 % 0 lf 1027,8 hPa 0,0 l/m 2 min 0 min 256 W/m 18,8 km/h (3 Bft) 95,74 %
04.12.2015 12:50 10,0 C 15,6 C 8,9 C 87 % 0 lf 1027,8 hPa 0,0 l/m 2 min 0 min 285 W/m 20,9 km/h (4 Bft) 91,49 %
04.12.2015 12:52 10,1 C 16,7 C 8,9 C 86 % 0 lf 1027,9 hPa 0,0 l/m 2 min 0 min 295 W/m 23,0 km/h (4 Bft) 95,65 %
04.12.2015 12:54 10,1 C 17,2 C 8,9 C 86 % 0 lf 1027,9 hPa 0,0 l/m 2 min 0 min 299 W/m 29,3 km/h (5 Bft) 97,87 %
04.12.2015 12:56 10,1 C 15,6 C 8,9 C 86 % 0 lf 1027,9 hPa 0,0 l/m 2 min 0 min 227 W/m 25,1 km/h (4 Bft) 97,87 %
04.12.2015 12:58 10,1 C 13,9 C 8,9 C 85 % 0 lf 1027,9 hPa 0,0 l/m 2 min 0 min 163 W/m 25,1 km/h (4 Bft) 97,87 %
04.12.2015 13:00 10,1 C 13,3 C 8,9 C 85 % 0 lf 1028,0 hPa 0,0 l/m 2 min 0 min 155 W/m 20,9 km/h (4 Bft) 93,62 %
04.12.2015 13:02 10,2 C 14,4 C 9,4 C 85 % 0 lf 1028,0 hPa 0,0 l/m 2 min 0 min 342 W/m 18,8 km/h (3 Bft) 97,92 %
04.12.2015 13:04 10,2 C 13,3 C 9,4 C 85 % 0 lf 1028,1 hPa 0,0 l/m 2 min 0 min 211 W/m 18,8 km/h (3 Bft) 95,65 %
04.12.2015 13:06 10,2 C 12,8 C 8,9 C 85 % 0 lf 1028,1 hPa 0,0 l/m 0 min 0 min 119 W/m 18,8 km/h (3 Bft) 97,96 %
04.12.2015 13:08 10,2 C 11,7 C 8,9 C 84 % 0 lf 1028,1 hPa 0,0 l/m 0 min 0 min 105 W/m 29,3 km/h (5 Bft) 97,87 %
04.12.2015 13:10 10,2 C 11,7 C 8,3 C 84 % 0 lf 1028,1 hPa 0,0 l/m 0 min 0 min 94 W/m 20,9 km/h (4 Bft) 93,62 %
04.12.2015 13:12 10,1 C 12,8 C 8,3 C 84 % 0 lf 1028,3 hPa 0,0 l/m 2 min 0 min 170 W/m 12,6 km/h (3 Bft) 97,83 %
04.12.2015 13:14 10,1 C 12,2 C 8,3 C 84 % 0 lf 1028,4 hPa 0,0 l/m 2 min 0 min 186 W/m 25,1 km/h (4 Bft) 97,87 %
04.12.2015 13:16 10,1 C 12,8 C 8,3 C 84 % 0 lf 1028,4 hPa 0,0 l/m 0 min 0 min 120 W/m 20,9 km/h (4 Bft) 93,62 %
04.12.2015 13:18 10,1 C 13,9 C 8,3 C 84 % 0 lf 1028,3 hPa 0,0 l/m 2 min 0 min 239 W/m 18,8 km/h (3 Bft) 95,74 %
04.12.2015 13:20 10,1 C 15,0 C 8,3 C 84 % 0 lf 1028,3 hPa 0,0 l/m 2 min 0 min 231 W/m 14,6 km/h (3 Bft) 97,87 %
04.12.2015 13:22 10,1 C 15,6 C 8,3 C 83 % 0 lf 1028,4 hPa 0,0 l/m 2 min 0 min 242 W/m 18,8 km/h (3 Bft) 95,74 %
04.12.2015 13:24 10,1 C 16,1 C 8,9 C 83 % 0 lf 1028,5 hPa 0,0 l/m 2 min 0 min 248 W/m 14,6 km/h (3 Bft) 95,65 %
04.12.2015 13:26 10,1 C 16,7 C 8,9 C 83 % 0 lf 1028,4 hPa 0,0 l/m 2 min 0 min 253 W/m 23,0 km/h (4 Bft) 95,74 %
04.12.2015 13:28 10,1 C 17,2 C 8,9 C 83 % 0 lf 1028,4 hPa 0,0 l/m 2 min 0 min 245 W/m 25,1 km/h (4 Bft) 97,87 %
04.12.2015 13:30 10,1 C 17,2 C 8,9 C 83 % 0 lf 1028,4 hPa 0,0 l/m 2 min 0 min 250 W/m 16,7 km/h (3 Bft) 95,74 %
04.12.2015 13:32 10,2 C 18,3 C 8,9 C 83 % 0 lf 1028,4 hPa 0,0 l/m 2 min 0 min 231 W/m 12,6 km/h (3 Bft) 97,14 %
04.12.2015 13:34 10,2 C 17,8 C 8,9 C 83 % 0 lf 1028,5 hPa 0,0 l/m 2 min 0 min 214 W/m 12,6 km/h (3 Bft) 93,62 %
04.12.2015 13:36 10,2 C 17,8 C 8,9 C 83 % 0 lf 1028,5 hPa 0,0 l/m 2 min 0 min 209 W/m 18,8 km/h (3 Bft) 95,74 %
04.12.2015 13:38 10,3 C 17,8 C 8,9 C 83 % 0 lf 1028,5 hPa 0,0 l/m 2 min 0 min 202 W/m 18,8 km/h (3 Bft) 97,83 %
04.12.2015 13:40 10,3 C 17,8 C 8,9 C 82 % 0 lf 1028,5 hPa 0,0 l/m 2 min 0 min 199 W/m 20,9 km/h (4 Bft) 100,00 %
04.12.2015 13:42 10,3 C 16,7 C 8,9 C 82 % 0 lf 1028,5 hPa 0,0 l/m 2 min 0 min 201 W/m 31,4 km/h (5 Bft) 100,00 %
04.12.2015 13:44 10,3 C 17,2 C 8,3 C 82 % 0 lf 1028,6 hPa 0,0 l/m 2 min 0 min 198 W/m 23,0 km/h (4 Bft) 97,87 %
04.12.2015 13:46 10,3 C 16,7 C 8,3 C 82 % 0 lf 1028,6 hPa 0,0 l/m 2 min 0 min 193 W/m 25,1 km/h (4 Bft) 100,00 %
04.12.2015 13:48 10,4 C 16,7 C 8,3 C 82 % 0 lf 1028,6 hPa 0,0 l/m 2 min 0 min 191 W/m 27,2 km/h (4 Bft) 100,00 %
04.12.2015 13:50 10,3 C 16,7 C 8,3 C 82 % 0 lf 1028,6 hPa 0,0 l/m 2 min 0 min 186 W/m 25,1 km/h (4 Bft) 97,83 %
04.12.2015 13:52 10,3 C 15,6 C 8,3 C 81 % 0 lf 1028,6 hPa 0,0 l/m 2 min 0 min 185 W/m 33,5 km/h (5 Bft) 95,74 %
04.12.2015 13:54 10,3 C 15,6 C 8,3 C 81 % 0 lf 1028,6 hPa 0,0 l/m 2 min 0 min 181 W/m 27,2 km/h (4 Bft) 100,00 %
04.12.2015 13:56 10,3 C 16,1 C 8,3 C 81 % 0 lf 1028,6 hPa 0,0 l/m 2 min 0 min 178 W/m 25,1 km/h (4 Bft) 100,00 %
04.12.2015 13:58 10,3 C 15,6 C 8,3 C 81 % 0 lf 1028,6 hPa 0,0 l/m 2 min 0 min 176 W/m 29,3 km/h (5 Bft) 97,87 %
04.12.2015 14:00 10,2 C 16,1 C 8,3 C 81 % 0 lf 1028,7 hPa 0,0 l/m 2 min 0 min 174 W/m 18,8 km/h (3 Bft) 95,74 %
04.12.2015 14:02 10,2 C 16,1 C 8,3 C 81 % 0 lf 1028,8 hPa 0,0 l/m 2 min 0 min 168 W/m 18,8 km/h (3 Bft) 100,00 %
04.12.2015 14:04 10,2 C 15,6 C 8,3 C 81 % 0 lf 1028,8 hPa 0,0 l/m 2 min 0 min 166 W/m 16,7 km/h (3 Bft) 97,87 %
04.12.2015 14:06 10,3 C 15,6 C 8,3 C 81 % 0 lf 1028,8 hPa 0,0 l/m 2 min 0 min 163 W/m 16,7 km/h (3 Bft) 98,15 %
04.12.2015 14:08 10,2 C 15,6 C 8,3 C 81 % 0 lf 1028,7 hPa 0,0 l/m 2 min 0 min 160 W/m 27,2 km/h (4 Bft) 97,87 %
04.12.2015 14:10 10,2 C 15,6 C 8,3 C 81 % 0 lf 1028,8 hPa 0,0 l/m 2 min 0 min 155 W/m 29,3 km/h (5 Bft) 97,87 %
04.12.2015 14:12 10,2 C 16,1 C 8,3 C 81 % 0 lf 1028,8 hPa 0,0 l/m 2 min 0 min 155 W/m 20,9 km/h (4 Bft) 97,87 %
04.12.2015 14:14 10,2 C 15,6 C 8,3 C 80 % 0 lf 1028,8 hPa 0,0 l/m 2 min 0 min 150 W/m 20,9 km/h (4 Bft) 100,00 %
04.12.2015 14:16 10,2 C 16,7 C 8,3 C 81 % 0 lf 1028,9 hPa 0,0 l/m 2 min 0 min 146 W/m 18,8 km/h (3 Bft) 97,87 %
04.12.2015 14:18 10,2 C 16,1 C 8,3 C 81 % 0 lf 1028,9 hPa 0,0 l/m 2 min 0 min 138 W/m 27,2 km/h (4 Bft) 100,00 %
04.12.2015 14:20 10,2 C 15,0 C 8,3 C 80 % 0 lf 1028,9 hPa 0,0 l/m 2 min 0 min 138 W/m 25,1 km/h (4 Bft) 100,00 %
04.12.2015 14:22 10,2 C 14,4 C 8,3 C 80 % 0 lf 1029,0 hPa 0,0 l/m 2 min 0 min 135 W/m 27,2 km/h (4 Bft) 100,00 %
04.12.2015 14:24 10,2 C 12,8 C 8,3 C 80 % 0 lf 1028,9 hPa 0,0 l/m 2 min 0 min 134 W/m 29,3 km/h (5 Bft) 93,62 %
04.12.2015 14:26 10,1 C 12,2 C 8,3 C 80 % 0 lf 1029,0 hPa 0,0 l/m 2 min 0 min 130 W/m 25,1 km/h (4 Bft) 95,65 %
04.12.2015 14:28 10,1 C 11,1 C 8,3 C 80 % 0 lf 1029,0 hPa 0,0 l/m 2 min 0 min 126 W/m 25,1 km/h (4 Bft) 95,74 %
04.12.2015 14:30 10,1 C 11,1 C 8,3 C 80 % 0 lf 1029,0 hPa 0,0 l/m 2 min 0 min 123 W/m 14,6 km/h (3 Bft) 97,87 %
04.12.2015 14:32 10,1 C 10,6 C 8,3 C 80 % 0 lf 1029,0 hPa 0,0 l/m 2 min 0 min 121 W/m 12,6 km/h (3 Bft) 93,75 %
04.12.2015 14:34 10,1 C 10,6 C 8,3 C 80 % 0 lf 1029,0 hPa 0,0 l/m 2 min 0 min 118 W/m 18,8 km/h (3 Bft) 93,62 %
04.12.2015 14:36 10,0 C 10,6 C 8,3 C 80 % 0 lf 1029,0 hPa 0,0 l/m 2 min 0 min 115 W/m 20,9 km/h (4 Bft) 95,65 %
04.12.2015 14:38 10,0 C 10,6 C 8,3 C 80 % 0 lf 1029,0 hPa 0,0 l/m 2 min 0 min 112 W/m 23,0 km/h (4 Bft) 95,74 %
04.12.2015 14:40 10,0 C 10,6 C 8,3 C 80 % 0 lf 1028,9 hPa 0,0 l/m 2 min 0 min 107 W/m 27,2 km/h (4 Bft) 91,49 %
04.12.2015 14:42 9,9 C 10,6 C 8,3 C 80 % 0 lf 1028,9 hPa 0,0 l/m 2 min 0 min 105 W/m 25,1 km/h (4 Bft) 91,49 %
04.12.2015 14:44 9,9 C 10,6 C 8,3 C 80 % 0 lf 1029,0 hPa 0,0 l/m 2 min 0 min 102 W/m 18,8 km/h (3 Bft) 95,74 %
04.12.2015 14:46 9,9 C 10,6 C 7,8 C 80 % 0 lf 1029,0 hPa 0,0 l/m 2 min 0 min 99 W/m 23,0 km/h (4 Bft) 95,74 %
04.12.2015 14:48 9,9 C 10,6 C 7,8 C 80 % 0 lf 1029,0 hPa 0,2 l/m 2 min 0 min 95 W/m 23,0 km/h (4 Bft) 95,74 %
04.12.2015 14:50 9,9 C 10,6 C 7,8 C 80 % 0 lf 1029,1 hPa 0,0 l/m 2 min 0 min 92 W/m 27,2 km/h (4 Bft) 93,48 %
04.12.2015 14:52 9,8 C 10,0 C 7,8 C 80 % 0 lf 1029,1 hPa 0,0 l/m 2 min 0 min 89 W/m 23,0 km/h (4 Bft) 95,74 %
04.12.2015 14:54 9,8 C 10,6 C 7,8 C 80 % 0 lf 1029,1 hPa 0,0 l/m 2 min 0 min 86 W/m 20,9 km/h (4 Bft) 95,74 %
04.12.2015 14:56 9,8 C 10,0 C 7,8 C 80 % 0 lf 1029,1 hPa 0,0 l/m 2 min 0 min 83 W/m 27,2 km/h (4 Bft) 95,74 %
04.12.2015 14:58 9,8 C 10,0 C 7,8 C 80 % 0 lf 1029,1 hPa 0,0 l/m 0 min 0 min 79 W/m 27,2 km/h (4 Bft) 95,74 %
04.12.2015 15:00 9,7 C 10,6 C 7,8 C 80 % 0 lf 1029,1 hPa 0,0 l/m 0 min 0 min 75 W/m 27,2 km/h (4 Bft) 95,65 %
04.12.2015 15:02 9,7 C 10,6 C 7,8 C 80 % 0 lf 1029,1 hPa 0,0 l/m 0 min 0 min 72 W/m 25,1 km/h (4 Bft) 95,83 %
04.12.2015 15:04 9,7 C 11,1 C 7,8 C 80 % 0 lf 1029,0 hPa 0,0 l/m 0 min 0 min 69 W/m 25,1 km/h (4 Bft) 95,74 %
04.12.2015 15:06 9,7 C 11,1 C 7,8 C 80 % 0 lf 1029,0 hPa 0,0 l/m 0 min 0 min 66 W/m 20,9 km/h (4 Bft) 97,96 %
04.12.2015 15:08 9,7 C 10,6 C 7,8 C 80 % 0 lf 1029,0 hPa 0,0 l/m 0 min 0 min 63 W/m 18,8 km/h (3 Bft) 93,62 %
04.12.2015 15:10 9,7 C 10,6 C 7,8 C 80 % 0 lf 1029,0 hPa 0,0 l/m 0 min 0 min 59 W/m 23,0 km/h (4 Bft) 93,48 %
04.12.2015 15:12 9,7 C 10,0 C 7,8 C 80 % 0 lf 1029,0 hPa 0,0 l/m 0 min 0 min 56 W/m 14,6 km/h (3 Bft) 97,87 %
04.12.2015 15:14 9,6 C 10,0 C 7,8 C 81 % 0 lf 1029,1 hPa 0,0 l/m 0 min 0 min 54 W/m 16,7 km/h (3 Bft) 95,74 %
04.12.2015 15:16 9,6 C 10,0 C 7,8 C 81 % 0 lf 1029,1 hPa 0,0 l/m 0 min 0 min 50 W/m 20,9 km/h (4 Bft) 97,87 %
04.12.2015 15:18 9,6 C 10,0 C 7,8 C 81 % 0 lf 1029,2 hPa 0,0 l/m 0 min 0 min 48 W/m 16,7 km/h (3 Bft) 97,87 %
04.12.2015 15:20 9,6 C 9,4 C 7,8 C 81 % 0 lf 1029,3 hPa 0,0 l/m 0 min 0 min 44 W/m 16,7 km/h (3 Bft) 95,65 %
04.12.2015 15:22 9,6 C 9,4 C 7,8 C 81 % 0 lf 1029,3 hPa 0,0 l/m 0 min 0 min 41 W/m 23,0 km/h (4 Bft) 91,67 %
04.12.2015 15:24 9,6 C 9,4 C 7,8 C 81 % 0 lf 1029,2 hPa 0,0 l/m 0 min 0 min 39 W/m 20,9 km/h (4 Bft) 97,83 %
04.12.2015 15:26 9,5 C 9,4 C 7,8 C 82 % 0 lf 1029,3 hPa 0,0 l/m 0 min 0 min 37 W/m 20,9 km/h (4 Bft) 93,62 %
04.12.2015 15:28 9,5 C 9,4 C 7,8 C 82 % 0 lf 1029,3 hPa 0,0 l/m 0 min 0 min 34 W/m 23,0 km/h (4 Bft) 97,87 %
04.12.2015 15:30 9,4 C 9,4 C 7,8 C 82 % 0 lf 1029,3 hPa 0,0 l/m 0 min 0 min 32 W/m 27,2 km/h (4 Bft) 95,74 %
04.12.2015 15:32 9,4 C 9,4 C 7,8 C 81 % 0 lf 1029,3 hPa 0,0 l/m 0 min 0 min 30 W/m 18,8 km/h (3 Bft) 97,87 %
04.12.2015 15:34 9,4 C 9,4 C 7,8 C 81 % 0 lf 1029,3 hPa 0,0 l/m 0 min 0 min 29 W/m 16,7 km/h (3 Bft) 95,65 %
04.12.2015 15:36 9,4 C 9,4 C 7,2 C 81 % 0 lf 1029,3 hPa 0,0 l/m 0 min 0 min 28 W/m 16,7 km/h (3 Bft) 97,87 %
04.12.2015 15:38 9,4 C 9,4 C 7,2 C 82 % 0 lf 1029,3 hPa 0,0 l/m 0 min 0 min 27 W/m 25,1 km/h (4 Bft) 93,62 %
04.12.2015 15:40 9,4 C 9,4 C 7,2 C 82 % 0 lf 1029,5 hPa 0,0 l/m 0 min 0 min 26 W/m 18,8 km/h (3 Bft) 93,62 %
04.12.2015 15:42 9,3 C 9,4 C 7,2 C 81 % 0 lf 1029,5 hPa 0,0 l/m 0 min 0 min 26 W/m 23,0 km/h (4 Bft) 95,74 %
04.12.2015 15:44 9,3 C 9,4 C 7,2 C 81 % 0 lf 1029,5 hPa 0,0 l/m 0 min 0 min 25 W/m 20,9 km/h (4 Bft) 95,74 %
04.12.2015 15:46 9,3 C 9,4 C 7,2 C 81 % 0 lf 1029,6 hPa 0,0 l/m 0 min 0 min 25 W/m 18,8 km/h (3 Bft) 95,65 %
04.12.2015 15:48 9,3 C 9,4 C 7,2 C 81 % 0 lf 1029,6 hPa 0,0 l/m 0 min 0 min 24 W/m 16,7 km/h (3 Bft) 93,62 %
04.12.2015 15:50 9,2 C 8,9 C 7,2 C 81 % 0 lf 1029,6 hPa 0,0 l/m 0 min 0 min 22 W/m 16,7 km/h (3 Bft) 91,49 %
04.12.2015 15:52 9,2 C 8,9 C 7,2 C 81 % 0 lf 1029,7 hPa 0,0 l/m 0 min 0 min 21 W/m 20,9 km/h (4 Bft) 95,74 %
04.12.2015 15:54 9,2 C 8,9 C 7,2 C 81 % 0 lf 1029,7 hPa 0,0 l/m 0 min 0 min 20 W/m 14,6 km/h (3 Bft) 93,62 %
04.12.2015 15:56 9,2 C 8,9 C 7,2 C 82 % 0 lf 1029,7 hPa 0,0 l/m 0 min 0 min 19 W/m 12,6 km/h (3 Bft) 95,74 %
04.12.2015 15:58 9,1 C 8,9 C 7,2 C 82 % 0 lf 1029,8 hPa 0,0 l/m 0 min 0 min 19 W/m 20,9 km/h (4 Bft) 95,65 %
04.12.2015 16:00 9,1 C 8,9 C 7,2 C 82 % 0 lf 1029,8 hPa 0,0 l/m 0 min 0 min 18 W/m 10,5 km/h (2 Bft) 95,74 %
04.12.2015 16:02 9,1 C 8,9 C 6,7 C 82 % 0 lf 1029,8 hPa 0,0 l/m 0 min 0 min 18 W/m 10,5 km/h (2 Bft) 97,87 %
04.12.2015 16:04 9,1 C 8,3 C 6,7 C 82 % 0 lf 1029,8 hPa 0,0 l/m 0 min 0 min 17 W/m 16,7 km/h (3 Bft) 95,74 %
04.12.2015 16:06 9,1 C 8,9 C 6,7 C 82 % 0 lf 1029,8 hPa 0,0 l/m 0 min 0 min 16 W/m 10,5 km/h (2 Bft) 94,44 %
04.12.2015 16:08 9,0 C 8,9 C 6,7 C 82 % 0 lf 1029,9 hPa 0,0 l/m 0 min 0 min 15 W/m 16,7 km/h (3 Bft) 97,87 %
04.12.2015 16:10 9,0 C 8,9 C 6,7 C 82 % 0 lf 1029,9 hPa 0,0 l/m 0 min 0 min 14 W/m 12,6 km/h (3 Bft) 93,62 %
04.12.2015 16:12 8,9 C 8,9 C 6,7 C 82 % 0 lf 1029,8 hPa 0,0 l/m 0 min 0 min 13 W/m 14,6 km/h (3 Bft) 95,65 %
04.12.2015 16:14 8,9 C 8,3 C 6,7 C 82 % 0 lf 1029,7 hPa 0,0 l/m 0 min 0 min 12 W/m 18,8 km/h (3 Bft) 97,87 %
04.12.2015 16:16 8,9 C 8,3 C 6,7 C 82 % 0 lf 1029,8 hPa 0,0 l/m 0 min 0 min 12 W/m 18,8 km/h (3 Bft) 97,87 %
04.12.2015 16:18 8,9 C 8,3 C 6,7 C 82 % 0 lf 1029,9 hPa 0,0 l/m 0 min 0 min 11 W/m 12,6 km/h (3 Bft) 95,74 %
04.12.2015 16:20 8,8 C 8,3 C 6,7 C 83 % 0 lf 1029,9 hPa 0,0 l/m 0 min 0 min 11 W/m 16,7 km/h (3 Bft) 97,87 %
04.12.2015 16:22 8,8 C 8,3 C 6,7 C 83 % 0 lf 1029,9 hPa 0,0 l/m 0 min 0 min 11 W/m 14,6 km/h (3 Bft) 97,87 %
04.12.2015 16:24 8,8 C 8,3 C 6,7 C 83 % 0 lf 1029,9 hPa 0,0 l/m 0 min 0 min 9 W/m 20,9 km/h (4 Bft) 93,62 %
04.12.2015 16:26 8,7 C 8,3 C 6,7 C 83 % 0 lf 1029,9 hPa 0,0 l/m 0 min 0 min 9 W/m 14,6 km/h (3 Bft) 97,87 %
04.12.2015 16:28 8,7 C 8,3 C 6,7 C 83 % 0 lf 1029,9 hPa 0,0 l/m 0 min 0 min 7 W/m 16,7 km/h (3 Bft) 97,87 %
04.12.2015 16:30 8,7 C 8,3 C 6,7 C 83 % 0 lf 1029,9 hPa 0,0 l/m 0 min 0 min 7 W/m 20,9 km/h (4 Bft) 95,74 %
04.12.2015 16:32 8,7 C 8,3 C 6,7 C 83 % 0 lf 1029,9 hPa 0,0 l/m 0 min 0 min 6 W/m 16,7 km/h (3 Bft) 97,92 %
04.12.2015 16:34 8,7 C 8,3 C 6,7 C 83 % 0 lf 1029,8 hPa 0,0 l/m 0 min 0 min 5 W/m 12,6 km/h (3 Bft) 95,74 %
04.12.2015 16:36 8,6 C 8,3 C 6,7 C 83 % 0 lf 1029,8 hPa 0,0 l/m 0 min 0 min 5 W/m 10,5 km/h (2 Bft) 93,48 %
04.12.2015 16:38 8,6 C 7,8 C 6,1 C 83 % 0 lf 1029,7 hPa 0,0 l/m 0 min 0 min 5 W/m 12,6 km/h (3 Bft) 95,74 %
04.12.2015 16:40 8,6 C 7,8 C 6,1 C 83 % 0 lf 1029,8 hPa 0,0 l/m 0 min 0 min 2 W/m 16,7 km/h (3 Bft) 93,62 %
04.12.2015 16:42 8,6 C 8,3 C 6,1 C 83 % 0 lf 1029,9 hPa 0,0 l/m 0 min 0 min 0 W/m 16,7 km/h (3 Bft) 93,62 %
04.12.2015 16:44 8,5 C 7,8 C 6,1 C 83 % 0 lf 1029,9 hPa 0,0 l/m 0 min 0 min 0 W/m 10,5 km/h (2 Bft) 95,74 %
04.12.2015 16:46 8,5 C 7,8 C 6,7 C 84 % 0 lf 1030,0 hPa 0,0 l/m 0 min 0 min 0 W/m 14,6 km/h (3 Bft) 95,65 %
04.12.2015 16:48 8,4 C 7,8 C 6,1 C 84 % 0 lf 1029,9 hPa 0,0 l/m 0 min 0 min 0 W/m 18,8 km/h (3 Bft) 93,62 %
04.12.2015 16:50 8,4 C 8,3 C 6,7 C 84 % 0 lf 1029,9 hPa 0,0 l/m 0 min 0 min 0 W/m 20,9 km/h (4 Bft) 95,74 %
04.12.2015 16:52 8,4 C 8,3 C 6,7 C 84 % 0 lf 1029,9 hPa 0,0 l/m 0 min 0 min 0 W/m 16,7 km/h (3 Bft) 97,87 %
04.12.2015 16:54 8,4 C 8,3 C 6,7 C 84 % 0 lf 1029,9 hPa 0,0 l/m 0 min 0 min 0 W/m 20,9 km/h (4 Bft) 97,87 %
04.12.2015 16:56 8,3 C 8,3 C 6,7 C 84 % 0 lf 1029,9 hPa 0,0 l/m 0 min 0 min 0 W/m 27,2 km/h (4 Bft) 97,87 %
04.12.2015 16:58 8,3 C 7,8 C 6,1 C 84 % 0 lf 1029,9 hPa 0,0 l/m 0 min 0 min 0 W/m 16,7 km/h (3 Bft) 91,30 %
04.12.2015 17:00 8,3 C 7,8 C 6,1 C 84 % 0 lf 1030,0 hPa 0,0 l/m 0 min 0 min 0 W/m 16,7 km/h (3 Bft) 95,74 %
04.12.2015 17:02 8,2 C 7,8 C 6,1 C 84 % 0 lf 1030,0 hPa 0,0 l/m 0 min 0 min 0 W/m 16,7 km/h (3 Bft) 95,83 %
04.12.2015 17:04 8,2 C 7,8 C 6,1 C 84 % 0 lf 1029,9 hPa 0,0 l/m 0 min 0 min 0 W/m 25,1 km/h (4 Bft) 95,74 %
04.12.2015 17:06 8,2 C 7,8 C 6,1 C 84 % 0 lf 1029,9 hPa 0,0 l/m 0 min 0 min 0 W/m 25,1 km/h (4 Bft) 93,75 %
04.12.2015 17:08 8,2 C 7,8 C 6,1 C 84 % 0 lf 1029,9 hPa 0,0 l/m 0 min 0 min 0 W/m 14,6 km/h (3 Bft) 91,49 %
04.12.2015 17:10 8,2 C 7,8 C 6,1 C 84 % 0 lf 1029,9 hPa 0,0 l/m 0 min 0 min 0 W/m 16,7 km/h (3 Bft) 97,87 %
04.12.2015 17:12 8,2 C 7,8 C 6,1 C 85 % 0 lf 1030,0 hPa 0,0 l/m 0 min 0 min 0 W/m 18,8 km/h (3 Bft) 95,74 %
04.12.2015 17:14 8,1 C 7,8 C 6,1 C 85 % 0 lf 1029,9 hPa 0,0 l/m 0 min 0 min 0 W/m 29,3 km/h (5 Bft) 97,87 %
04.12.2015 17:16 8,1 C 7,8 C 6,1 C 85 % 0 lf 1030,0 hPa 0,0 l/m 0 min 0 min 0 W/m 23,0 km/h (4 Bft) 95,65 %
04.12.2015 17:18 8,1 C 7,8 C 6,1 C 85 % 0 lf 1030,1 hPa 0,0 l/m 0 min 0 min 0 W/m 16,7 km/h (3 Bft) 95,74 %
04.12.2015 17:20 8,1 C 7,8 C 6,1 C 85 % 0 lf 1030,1 hPa 0,0 l/m 0 min 0 min 0 W/m 20,9 km/h (4 Bft) 97,87 %
04.12.2015 17:22 8,1 C 7,8 C 6,1 C 85 % 0 lf 1030,1 hPa 0,0 l/m 0 min 0 min 0 W/m 16,7 km/h (3 Bft) 95,74 %
04.12.2015 17:24 8,1 C 7,8 C 6,1 C 85 % 0 lf 1030,2 hPa 0,0 l/m 0 min 0 min 0 W/m 20,9 km/h (4 Bft) 93,62 %
04.12.2015 17:26 8,0 C 7,8 C 6,1 C 85 % 0 lf 1030,2 hPa 0,0 l/m 0 min 0 min 0 W/m 23,0 km/h (4 Bft) 97,87 %
04.12.2015 17:28 8,0 C 7,8 C 6,1 C 85 % 0 lf 1030,2 hPa 0,0 l/m 0 min 0 min 0 W/m 16,7 km/h (3 Bft) 93,48 %
04.12.2015 17:30 7,9 C 7,8 C 6,1 C 85 % 0 lf 1030,3 hPa 0,0 l/m 0 min 0 min 0 W/m 25,1 km/h (4 Bft) 95,74 %
04.12.2015 17:32 7,9 C 7,8 C 6,1 C 85 % 0 lf 1030,3 hPa 0,0 l/m 0 min 0 min 0 W/m 20,9 km/h (4 Bft) 95,74 %
04.12.2015 17:34 7,9 C 7,8 C 6,1 C 85 % 0 lf 1030,3 hPa 0,0 l/m 0 min 0 min 0 W/m 18,8 km/h (3 Bft) 97,87 %
04.12.2015 17:36 7,9 C 7,8 C 6,1 C 85 % 0 lf 1030,3 hPa 0,0 l/m 0 min 0 min 0 W/m 20,9 km/h (4 Bft) 94,29 %
04.12.2015 17:38 7,9 C 7,8 C 6,1 C 85 % 0 lf 1030,4 hPa 0,0 l/m 0 min 0 min 0 W/m 20,9 km/h (4 Bft) 93,62 %
04.12.2015 17:40 7,9 C 7,8 C 6,1 C 85 % 0 lf 1030,4 hPa 0,0 l/m 0 min 0 min 0 W/m 14,6 km/h (3 Bft) 93,62 %
04.12.2015 17:42 7,9 C 7,8 C 6,1 C 85 % 0 lf 1030,4 hPa 0,0 l/m 0 min 0 min 0 W/m 14,6 km/h (3 Bft) 95,74 %
04.12.2015 17:44 7,8 C 7,2 C 6,1 C 86 % 0 lf 1030,4 hPa 0,0 l/m 0 min 0 min 0 W/m 14,6 km/h (3 Bft) 97,83 %
04.12.2015 17:46 7,8 C 7,2 C 5,6 C 86 % 0 lf 1030,4 hPa 0,0 l/m 0 min 0 min 0 W/m 18,8 km/h (3 Bft) 95,74 %
04.12.2015 17:48 7,8 C 7,2 C 6,1 C 86 % 0 lf 1030,4 hPa 0,0 l/m 0 min 0 min 0 W/m 18,8 km/h (3 Bft) 93,62 %
04.12.2015 17:50 7,8 C 7,2 C 5,6 C 86 % 0 lf 1030,5 hPa 0,0 l/m 0 min 0 min 0 W/m 20,9 km/h (4 Bft) 97,87 %
04.12.2015 17:52 7,7 C 7,2 C 6,1 C 86 % 0 lf 1030,4 hPa 0,0 l/m 0 min 0 min 0 W/m 16,7 km/h (3 Bft) 93,62 %
04.12.2015 17:54 7,7 C 7,2 C 6,1 C 86 % 0 lf 1030,4 hPa 0,0 l/m 0 min 0 min 0 W/m 20,9 km/h (4 Bft) 97,87 %
04.12.2015 17:56 7,7 C 7,8 C 6,1 C 86 % 0 lf 1030,4 hPa 0,0 l/m 0 min 0 min 0 W/m 16,7 km/h (3 Bft) 95,65 %
04.12.2015 17:58 7,7 C 7,2 C 6,1 C 86 % 0 lf 1030,4 hPa 0,0 l/m 0 min 0 min 0 W/m 16,7 km/h (3 Bft) 100,00 %
04.12.2015 18:00 7,7 C 7,2 C 5,6 C 86 % 0 lf 1030,4 hPa 0,0 l/m 0 min 0 min 0 W/m 18,8 km/h (3 Bft) 95,74 %
04.12.2015 18:02 7,7 C 7,2 C 5,6 C 86 % 0 lf 1030,5 hPa 0,0 l/m 0 min 0 min 0 W/m 18,8 km/h (3 Bft) 97,87 %
04.12.2015 18:04 7,6 C 7,2 C 5,6 C 86 % 0 lf 1030,5 hPa 0,0 l/m 0 min 0 min 0 W/m 16,7 km/h (3 Bft) 95,74 %
04.12.2015 18:06 7,6 C 7,2 C 5,6 C 86 % 0 lf 1030,5 hPa 0,0 l/m 0 min 0 min 0 W/m 23,0 km/h (4 Bft) 94,55 %
04.12.2015 18:08 7,6 C 7,2 C 5,6 C 86 % 0 lf 1030,5 hPa 0,0 l/m 0 min 0 min 0 W/m 18,8 km/h (3 Bft) 97,83 %
04.12.2015 18:10 7,6 C 7,2 C 6,1 C 86 % 0 lf 1030,5 hPa 0,0 l/m 0 min 0 min 0 W/m 18,8 km/h (3 Bft) 97,87 %
04.12.2015 18:12 7,6 C 7,2 C 6,1 C 86 % 0 lf 1030,5 hPa 0,0 l/m 0 min 0 min 0 W/m 16,7 km/h (3 Bft) 95,74 %
04.12.2015 18:14 7,6 C 7,2 C 5,6 C 86 % 0 lf 1030,5 hPa 0,0 l/m 0 min 0 min 0 W/m 23,0 km/h (4 Bft) 93,62 %
04.12.2015 18:16 7,6 C 7,2 C 6,1 C 86 % 0 lf 1030,6 hPa 0,0 l/m 0 min 0 min 0 W/m 16,7 km/h (3 Bft) 97,87 %
04.12.2015 18:18 7,5 C 7,2 C 5,6 C 86 % 0 lf 1030,6 hPa 0,0 l/m 0 min 0 min 0 W/m 18,8 km/h (3 Bft) 97,87 %
04.12.2015 18:20 7,5 C 7,2 C 5,6 C 86 % 0 lf 1030,7 hPa 0,0 l/m 0 min 0 min 0 W/m 18,8 km/h (3 Bft) 93,48 %
04.12.2015 18:22 7,5 C 7,2 C 5,6 C 86 % 0 lf 1030,7 hPa 0,0 l/m 0 min 0 min 0 W/m 20,9 km/h (4 Bft) 93,62 %
04.12.2015 18:24 7,5 C 7,2 C 5,6 C 86 % 0 lf 1030,8 hPa 0,0 l/m 0 min 0 min 0 W/m 14,6 km/h (3 Bft) 93,62 %
04.12.2015 18:26 7,5 C 7,2 C 5,6 C 86 % 0 lf 1030,8 hPa 0,0 l/m 0 min 0 min 0 W/m 25,1 km/h (4 Bft) 97,87 %
04.12.2015 18:28 7,5 C 7,2 C 5,6 C 86 % 0 lf 1030,8 hPa 0,0 l/m 0 min 0 min 0 W/m 23,0 km/h (4 Bft) 97,87 %
04.12.2015 18:30 7,4 C 7,8 C 5,6 C 86 % 0 lf 1030,8 hPa 0,0 l/m 0 min 0 min 0 W/m 23,0 km/h (4 Bft) 95,74 %
04.12.2015 18:32 7,4 C 7,8 C 5,6 C 86 % 0 lf 1030,7 hPa 0,0 l/m 0 min 0 min 0 W/m 23,0 km/h (4 Bft) 95,65 %
04.12.2015 18:34 7,4 C 7,2 C 5,6 C 86 % 0 lf 1030,8 hPa 0,0 l/m 0 min 0 min 0 W/m 16,7 km/h (3 Bft) 93,62 %
04.12.2015 18:36 7,4 C 7,2 C 5,6 C 86 % 0 lf 1030,8 hPa 0,0 l/m 0 min 0 min 0 W/m 18,8 km/h (3 Bft) 94,00 %
04.12.2015 18:38 7,4 C 7,2 C 5,6 C 86 % 0 lf 1030,8 hPa 0,0 l/m 0 min 0 min 0 W/m 16,7 km/h (3 Bft) 95,74 %
04.12.2015 18:40 7,4 C 7,2 C 5,6 C 86 % 0 lf 1030,9 hPa 0,0 l/m 0 min 0 min 0 W/m 14,6 km/h (3 Bft) 95,74 %
04.12.2015 18:42 7,4 C 7,2 C 5,6 C 86 % 0 lf 1030,9 hPa 0,0 l/m 0 min 0 min 0 W/m 16,7 km/h (3 Bft) 93,48 %
04.12.2015 18:44 7,4 C 7,2 C 5,6 C 86 % 0 lf 1031,0 hPa 0,0 l/m 0 min 0 min 0 W/m 16,7 km/h (3 Bft) 93,62 %
04.12.2015 18:46 7,4 C 7,2 C 5,6 C 86 % 0 lf 1031,0 hPa 0,0 l/m 0 min 0 min 0 W/m 12,6 km/h (3 Bft) 97,87 %
04.12.2015 18:48 7,4 C 7,2 C 5,6 C 86 % 0 lf 1031,0 hPa 0,0 l/m 0 min 0 min 0 W/m 18,8 km/h (3 Bft) 95,74 %
04.12.2015 18:50 7,4 C 7,2 C 5,6 C 86 % 0 lf 1031,0 hPa 0,0 l/m 0 min 0 min 0 W/m 12,6 km/h (3 Bft) 97,87 %
04.12.2015 18:52 7,4 C 7,2 C 5,6 C 86 % 0 lf 1031,0 hPa 0,0 l/m 0 min 0 min 0 W/m 16,7 km/h (3 Bft) 97,87 %
04.12.2015 18:54 7,3 C 7,2 C 5,6 C 86 % 0 lf 1031,0 hPa 0,0 l/m 0 min 0 min 0 W/m 12,6 km/h (3 Bft) 93,48 %
04.12.2015 18:56 7,3 C 7,2 C 5,6 C 86 % 0 lf 1031,0 hPa 0,0 l/m 0 min 0 min 0 W/m 20,9 km/h (4 Bft) 97,87 %
04.12.2015 18:58 7,3 C 7,2 C 5,6 C 86 % 0 lf 1031,0 hPa 0,0 l/m 0 min 0 min 0 W/m 25,1 km/h (4 Bft) 93,62 %
04.12.2015 19:00 7,3 C 7,2 C 5,6 C 86 % 0 lf 1031,0 hPa 0,0 l/m 0 min 0 min 0 W/m 16,7 km/h (3 Bft) 97,87 %
04.12.2015 19:02 7,3 C 7,2 C 5,6 C 86 % 0 lf 1031,1 hPa 0,0 l/m 0 min 0 min 0 W/m 16,7 km/h (3 Bft) 95,74 %
04.12.2015 19:04 7,2 C 7,2 C 5,6 C 86 % 0 lf 1031,0 hPa 0,0 l/m 0 min 0 min 0 W/m 14,6 km/h (3 Bft) 100,00 %
04.12.2015 19:06 7,2 C 7,2 C 5,6 C 86 % 0 lf 1031,0 hPa 0,0 l/m 0 min 0 min 0 W/m 12,6 km/h (3 Bft) 100,00 %
04.12.2015 19:08 7,2 C 7,2 C 5,6 C 87 % 0 lf 1031,1 hPa 0,0 l/m 0 min 0 min 0 W/m 20,9 km/h (4 Bft) 97,87 %
04.12.2015 19:10 7,2 C 7,2 C 5,6 C 87 % 0 lf 1031,0 hPa 0,0 l/m 0 min 0 min 0 W/m 20,9 km/h (4 Bft) 100,00 %
04.12.2015 19:12 7,2 C 7,2 C 5,6 C 87 % 0 lf 1031,0 hPa 0,0 l/m 0 min 0 min 0 W/m 23,0 km/h (4 Bft) 97,87 %
04.12.2015 19:14 7,2 C 7,2 C 5,6 C 87 % 0 lf 1031,1 hPa 0,0 l/m 0 min 0 min 0 W/m 14,6 km/h (3 Bft) 95,74 %
04.12.2015 19:16 7,2 C 7,2 C 5,6 C 87 % 0 lf 1031,0 hPa 0,0 l/m 0 min 0 min 0 W/m 18,8 km/h (3 Bft) 100,00 %
04.12.2015 19:18 7,1 C 7,2 C 5,6 C 87 % 0 lf 1031,1 hPa 0,0 l/m 0 min 0 min 0 W/m 20,9 km/h (4 Bft) 100,00 %
04.12.2015 19:20 7,1 C 7,2 C 5,6 C 87 % 0 lf 1031,1 hPa 0,0 l/m 0 min 0 min 0 W/m 14,6 km/h (3 Bft) 97,87 %
04.12.2015 19:22 7,1 C 7,2 C 5,6 C 87 % 0 lf 1031,1 hPa 0,0 l/m 0 min 0 min 0 W/m 16,7 km/h (3 Bft) 100,00 %
04.12.2015 19:24 7,1 C 7,2 C 5,6 C 87 % 0 lf 1031,1 hPa 0,0 l/m 0 min 0 min 0 W/m 14,6 km/h (3 Bft) 95,74 %
04.12.2015 19:26 7,1 C 7,2 C 5,6 C 87 % 0 lf 1031,1 hPa 0,0 l/m 0 min 0 min 0 W/m 14,6 km/h (3 Bft) 97,87 %
04.12.2015 19:28 7,1 C 6,7 C 5,6 C 87 % 0 lf 1031,1 hPa 0,0 l/m 0 min 0 min 0 W/m 10,5 km/h (2 Bft) 97,83 %
04.12.2015 19:30 7,1 C 6,7 C 5,6 C 87 % 0 lf 1031,1 hPa 0,0 l/m 0 min 0 min 0 W/m 16,7 km/h (3 Bft) 100,00 %
04.12.2015 19:32 7,0 C 6,7 C 5,6 C 87 % 0 lf 1031,1 hPa 0,0 l/m 0 min 0 min 0 W/m 14,6 km/h (3 Bft) 97,87 %
04.12.2015 19:34 7,0 C 6,7 C 5,0 C 87 % 0 lf 1031,1 hPa 0,0 l/m 0 min 0 min 0 W/m 14,6 km/h (3 Bft) 97,87 %
04.12.2015 19:36 7,0 C 7,2 C 5,6 C 87 % 0 lf 1031,1 hPa 0,0 l/m 0 min 0 min 0 W/m 16,7 km/h (3 Bft) 95,74 %
04.12.2015 19:38 7,0 C 7,2 C 5,6 C 87 % 0 lf 1031,1 hPa 0,0 l/m 0 min 0 min 0 W/m 18,8 km/h (3 Bft) 100,00 %
04.12.2015 19:40 7,0 C 7,2 C 5,0 C 87 % 0 lf 1031,1 hPa 0,0 l/m 0 min 0 min 0 W/m 18,8 km/h (3 Bft) 100,00 %
04.12.2015 19:42 7,0 C 6,7 C 5,6 C 87 % 0 lf 1031,1 hPa 0,0 l/m 0 min 0 min 0 W/m 16,7 km/h (3 Bft) 100,00 %
04.12.2015 19:44 6,9 C 7,2 C 5,6 C 87 % 0 lf 1031,1 hPa 0,0 l/m 0 min 0 min 0 W/m 20,9 km/h (4 Bft) 100,00 %
04.12.2015 19:46 6,9 C 7,2 C 5,0 C 87 % 0 lf 1031,1 hPa 0,0 l/m 0 min 0 min 0 W/m 16,7 km/h (3 Bft) 95,74 %
04.12.2015 19:48 6,9 C 7,2 C 5,6 C 87 % 0 lf 1031,1 hPa 0,0 l/m 0 min 0 min 0 W/m 25,1 km/h (4 Bft) 97,87 %
04.12.2015 19:50 6,9 C 7,2 C 5,6 C 87 % 0 lf 1031,2 hPa 0,0 l/m 0 min 0 min 0 W/m 25,1 km/h (4 Bft) 95,74 %
04.12.2015 19:52 6,9 C 7,2 C 5,6 C 87 % 0 lf 1031,2 hPa 0,0 l/m 0 min 0 min 0 W/m 20,9 km/h (4 Bft) 97,83 %
04.12.2015 19:54 6,9 C 6,7 C 5,0 C 87 % 0 lf 1031,2 hPa 0,0 l/m 0 min 0 min 0 W/m 10,5 km/h (2 Bft) 93,62 %
04.12.2015 19:56 6,9 C 6,7 C 5,0 C 87 % 0 lf 1031,1 hPa 0,0 l/m 0 min 0 min 0 W/m 18,8 km/h (3 Bft) 95,74 %
04.12.2015 19:58 6,9 C 7,2 C 5,6 C 87 % 0 lf 1031,1 hPa 0,0 l/m 0 min 0 min 0 W/m 20,9 km/h (4 Bft) 97,87 %
04.12.2015 20:00 6,9 C 6,7 C 5,6 C 87 % 0 lf 1031,1 hPa 0,0 l/m 0 min 0 min 0 W/m 23,0 km/h (4 Bft) 95,74 %
04.12.2015 20:02 6,9 C 6,7 C 5,0 C 87 % 0 lf 1031,1 hPa 0,0 l/m 0 min 0 min 0 W/m 25,1 km/h (4 Bft) 97,87 %
04.12.2015 20:04 6,9 C 6,7 C 5,6 C 87 % 0 lf 1031,2 hPa 0,0 l/m 0 min 0 min 0 W/m 23,0 km/h (4 Bft) 93,48 %
04.12.2015 20:06 6,9 C 6,7 C 5,0 C 88 % 0 lf 1031,1 hPa 0,0 l/m 0 min 0 min 0 W/m 23,0 km/h (4 Bft) 92,73 %
04.12.2015 20:08 6,9 C 6,7 C 5,0 C 88 % 0 lf 1031,1 hPa 0,0 l/m 0 min 0 min 0 W/m 20,9 km/h (4 Bft) 95,74 %
04.12.2015 20:10 6,9 C 6,7 C 5,0 C 88 % 0 lf 1031,1 hPa 0,0 l/m 0 min 0 min 0 W/m 25,1 km/h (4 Bft) 95,74 %
04.12.2015 20:12 6,9 C 6,7 C 5,0 C 87 % 0 lf 1031,1 hPa 0,0 l/m 0 min 0 min 0 W/m 25,1 km/h (4 Bft) 95,74 %
04.12.2015 20:14 6,9 C 7,2 C 5,6 C 88 % 0 lf 1031,1 hPa 0,0 l/m 0 min 0 min 0 W/m 29,3 km/h (5 Bft) 95,74 %
04.12.2015 20:16 6,9 C 7,2 C 5,6 C 88 % 0 lf 1031,1 hPa 0,0 l/m 0 min 0 min 0 W/m 16,7 km/h (3 Bft) 97,83 %
04.12.2015 20:18 6,9 C 6,7 C 5,0 C 88 % 0 lf 1031,2 hPa 0,0 l/m 0 min 0 min 0 W/m 16,7 km/h (3 Bft) 93,62 %
04.12.2015 20:20 6,9 C 6,7 C 5,0 C 88 % 0 lf 1031,2 hPa 0,0 l/m 0 min 0 min 0 W/m 18,8 km/h (3 Bft) 91,49 %
04.12.2015 20:22 6,9 C 7,2 C 5,0 C 88 % 0 lf 1031,1 hPa 0,0 l/m 0 min 0 min 0 W/m 18,8 km/h (3 Bft) 93,62 %
04.12.2015 20:24 6,9 C 6,7 C 5,0 C 88 % 0 lf 1031,2 hPa 0,0 l/m 0 min 0 min 0 W/m 16,7 km/h (3 Bft) 91,49 %
04.12.2015 20:26 6,9 C 6,7 C 5,0 C 88 % 0 lf 1031,1 hPa 0,0 l/m 0 min 0 min 0 W/m 20,9 km/h (4 Bft) 91,49 %
04.12.2015 20:28 6,9 C 6,7 C 5,0 C 88 % 0 lf 1031,1 hPa 0,0 l/m 0 min 0 min 0 W/m 16,7 km/h (3 Bft) 93,48 %
04.12.2015 20:30 6,9 C 7,2 C 5,0 C 88 % 0 lf 1031,1 hPa 0,0 l/m 0 min 0 min 0 W/m 20,9 km/h (4 Bft) 93,62 %
04.12.2015 20:32 6,9 C 7,2 C 5,6 C 88 % 0 lf 1031,2 hPa 0,0 l/m 0 min 0 min 0 W/m 20,9 km/h (4 Bft) 93,62 %
04.12.2015 20:34 6,9 C 7,2 C 5,6 C 88 % 0 lf 1031,2 hPa 0,0 l/m 0 min 0 min 0 W/m 23,0 km/h (4 Bft) 89,36 %
04.12.2015 20:36 6,9 C 7,2 C 5,6 C 88 % 0 lf 1031,1 hPa 0,0 l/m 0 min 0 min 0 W/m 20,9 km/h (4 Bft) 90,00 %
04.12.2015 20:38 6,9 C 7,2 C 5,6 C 88 % 0 lf 1031,2 hPa 0,0 l/m 0 min 0 min 0 W/m 18,8 km/h (3 Bft) 91,30 %
04.12.2015 20:40 6,9 C 7,2 C 5,6 C 88 % 0 lf 1031,1 hPa 0,0 l/m 0 min 0 min 0 W/m 18,8 km/h (3 Bft) 91,30 %
04.12.2015 20:42 6,9 C 6,7 C 5,0 C 88 % 0 lf 1031,1 hPa 0,0 l/m 0 min 0 min 0 W/m 16,7 km/h (3 Bft) 93,62 %
04.12.2015 20:44 6,9 C 6,7 C 5,0 C 88 % 0 lf 1031,1 hPa 0,0 l/m 0 min 0 min 0 W/m 20,9 km/h (4 Bft) 91,49 %
04.12.2015 20:46 6,9 C 6,7 C 5,0 C 88 % 0 lf 1031,2 hPa 0,0 l/m 0 min 0 min 0 W/m 23,0 km/h (4 Bft) 89,36 %
04.12.2015 20:48 6,9 C 6,7 C 5,0 C 88 % 0 lf 1031,2 hPa 0,0 l/m 0 min 0 min 0 W/m 25,1 km/h (4 Bft) 87,23 %
04.12.2015 20:50 6,9 C 7,2 C 5,0 C 88 % 0 lf 1031,2 hPa 0,0 l/m 0 min 0 min 0 W/m 16,7 km/h (3 Bft) 91,30 %
04.12.2015 20:52 6,9 C 6,7 C 5,6 C 88 % 0 lf 1031,3 hPa 0,0 l/m 0 min 0 min 0 W/m 14,6 km/h (3 Bft) 93,62 %
04.12.2015 20:54 6,9 C 6,7 C 5,0 C 88 % 0 lf 1031,3 hPa 0,0 l/m 0 min 0 min 0 W/m 18,8 km/h (3 Bft) 85,11 %
04.12.2015 20:56 6,9 C 7,2 C 5,0 C 88 % 0 lf 1031,2 hPa 0,0 l/m 0 min 0 min 0 W/m 20,9 km/h (4 Bft) 95,74 %
04.12.2015 20:58 6,9 C 7,2 C 5,0 C 88 % 0 lf 1031,3 hPa 0,0 l/m 0 min 0 min 0 W/m 20,9 km/h (4 Bft) 97,87 %
04.12.2015 21:00 6,9 C 6,7 C 5,6 C 88 % 0 lf 1031,3 hPa 0,0 l/m 0 min 0 min 0 W/m 16,7 km/h (3 Bft) 97,87 %
04.12.2015 21:02 6,9 C 6,7 C 5,0 C 88 % 0 lf 1031,3 hPa 0,0 l/m 0 min 0 min 0 W/m 12,6 km/h (3 Bft) 95,74 %
04.12.2015 21:04 6,9 C 6,7 C 5,6 C 88 % 0 lf 1031,2 hPa 0,0 l/m 0 min 0 min 0 W/m 18,8 km/h (3 Bft) 91,49 %
04.12.2015 21:06 6,9 C 6,7 C 5,6 C 88 % 0 lf 1031,2 hPa 0,0 l/m 0 min 0 min 0 W/m 14,6 km/h (3 Bft) 100,00 %
04.12.2015 21:08 6,9 C 6,7 C 5,0 C 88 % 0 lf 1031,2 hPa 0,0 l/m 0 min 0 min 0 W/m 16,7 km/h (3 Bft) 97,87 %
04.12.2015 21:10 6,9 C 6,7 C 5,0 C 88 % 0 lf 1031,2 hPa 0,0 l/m 0 min 0 min 0 W/m 16,7 km/h (3 Bft) 97,87 %
04.12.2015 21:12 6,9 C 6,7 C 5,0 C 88 % 0 lf 1031,1 hPa 0,0 l/m 0 min 0 min 0 W/m 16,7 km/h (3 Bft) 91,49 %
04.12.2015 21:14 6,9 C 6,7 C 5,0 C 88 % 0 lf 1031,1 hPa 0,0 l/m 0 min 0 min 0 W/m 14,6 km/h (3 Bft) 95,65 %
04.12.2015 21:16 6,9 C 6,7 C 5,0 C 88 % 0 lf 1031,1 hPa 0,0 l/m 0 min 0 min 0 W/m 18,8 km/h (3 Bft) 95,74 %
04.12.2015 21:18 6,9 C 6,7 C 5,6 C 88 % 0 lf 1031,1 hPa 0,0 l/m 0 min 0 min 0 W/m 20,9 km/h (4 Bft) 95,74 %
04.12.2015 21:20 6,9 C 7,2 C 5,6 C 88 % 0 lf 1031,1 hPa 0,0 l/m 0 min 0 min 0 W/m 20,9 km/h (4 Bft) 95,74 %
04.12.2015 21:22 6,9 C 6,7 C 5,6 C 88 % 0 lf 1031,1 hPa 0,0 l/m 0 min 0 min 0 W/m 14,6 km/h (3 Bft) 95,74 %
04.12.2015 21:24 6,9 C 7,2 C 5,6 C 88 % 0 lf 1031,1 hPa 0,0 l/m 0 min 0 min 0 W/m 20,9 km/h (4 Bft) 100,00 %
04.12.2015 21:26 6,9 C 6,7 C 5,6 C 88 % 0 lf 1031,1 hPa 0,0 l/m 0 min 0 min 0 W/m 16,7 km/h (3 Bft) 100,00 %
04.12.2015 21:28 6,9 C 7,2 C 5,6 C 88 % 0 lf 1031,1 hPa 0,0 l/m 0 min 0 min 0 W/m 23,0 km/h (4 Bft) 100,00 %
04.12.2015 21:30 6,9 C 7,2 C 5,6 C 88 % 0 lf 1031,1 hPa 0,0 l/m 0 min 0 min 0 W/m 20,9 km/h (4 Bft) 97,87 %
04.12.2015 21:32 6,9 C 7,2 C 5,6 C 88 % 0 lf 1031,1 hPa 0,0 l/m 0 min 0 min 0 W/m 16,7 km/h (3 Bft) 95,74 %
04.12.2015 21:34 6,9 C 7,2 C 5,6 C 89 % 0 lf 1031,1 hPa 0,0 l/m 0 min 0 min 0 W/m 20,9 km/h (4 Bft) 97,87 %
04.12.2015 21:36 6,9 C 6,7 C 5,6 C 89 % 0 lf 1031,1 hPa 0,0 l/m 0 min 0 min 0 W/m 18,8 km/h (3 Bft) 100,00 %
04.12.2015 21:38 6,9 C 7,2 C 5,6 C 89 % 0 lf 1031,1 hPa 0,0 l/m 0 min 0 min 0 W/m 25,1 km/h (4 Bft) 97,83 %
04.12.2015 21:40 6,9 C 7,2 C 5,0 C 89 % 0 lf 1031,1 hPa 0,0 l/m 0 min 0 min 0 W/m 16,7 km/h (3 Bft) 95,74 %
04.12.2015 21:42 6,9 C 6,7 C 5,0 C 89 % 0 lf 1031,0 hPa 0,0 l/m 0 min 0 min 0 W/m 20,9 km/h (4 Bft) 95,74 %
04.12.2015 21:44 6,9 C 6,7 C 5,0 C 89 % 0 lf 1031,1 hPa 0,0 l/m 0 min 0 min 0 W/m 16,7 km/h (3 Bft) 97,87 %
04.12.2015 21:46 6,9 C 6,7 C 5,0 C 89 % 0 lf 1031,0 hPa 0,0 l/m 0 min 0 min 0 W/m 16,7 km/h (3 Bft) 97,87 %
04.12.2015 21:48 6,9 C 6,7 C 5,0 C 89 % 0 lf 1031,1 hPa 0,0 l/m 0 min 0 min 0 W/m 14,6 km/h (3 Bft) 97,87 %
04.12.2015 21:50 6,9 C 6,7 C 5,0 C 89 % 0 lf 1031,1 hPa 0,0 l/m 0 min 0 min 0 W/m 14,6 km/h (3 Bft) 97,83 %
04.12.2015 21:52 6,9 C 6,7 C 5,0 C 89 % 0 lf 1031,0 hPa 0,0 l/m 0 min 0 min 0 W/m 14,6 km/h (3 Bft) 97,87 %
04.12.2015 21:54 6,8 C 6,7 C 5,0 C 89 % 0 lf 1031,1 hPa 0,0 l/m 0 min 0 min 0 W/m 23,0 km/h (4 Bft) 95,74 %
04.12.2015 21:56 6,8 C 6,7 C 5,0 C 89 % 0 lf 1031,0 hPa 0,0 l/m 0 min 0 min 0 W/m 14,6 km/h (3 Bft) 95,74 %
04.12.2015 21:58 6,8 C 6,7 C 5,0 C 89 % 0 lf 1031,0 hPa 0,0 l/m 0 min 0 min 0 W/m 18,8 km/h (3 Bft) 97,87 %
04.12.2015 22:00 6,8 C 6,7 C 5,0 C 89 % 0 lf 1031,0 hPa 0,0 l/m 0 min 0 min 0 W/m 14,6 km/h (3 Bft) 100,00 %
04.12.2015 22:02 6,8 C 6,7 C 5,0 C 89 % 0 lf 1030,9 hPa 0,0 l/m 0 min 0 min 0 W/m 16,7 km/h (3 Bft) 100,00 %
04.12.2015 22:04 6,8 C 6,7 C 5,0 C 89 % 0 lf 1031,0 hPa 0,0 l/m 0 min 0 min 0 W/m 18,8 km/h (3 Bft) 95,74 %
04.12.2015 22:06 6,8 C 6,7 C 5,0 C 89 % 0 lf 1031,0 hPa 0,0 l/m 0 min 0 min 0 W/m 14,6 km/h (3 Bft) 100,00 %
04.12.2015 22:08 6,8 C 6,7 C 5,0 C 89 % 0 lf 1031,0 hPa 0,0 l/m 0 min 0 min 0 W/m 14,6 km/h (3 Bft) 97,87 %
04.12.2015 22:10 6,7 C 6,7 C 5,0 C 89 % 0 lf 1031,0 hPa 0,0 l/m 0 min 0 min 0 W/m 25,1 km/h (4 Bft) 97,87 %
04.12.2015 22:12 6,7 C 6,7 C 5,0 C 89 % 0 lf 1031,0 hPa 0,0 l/m 0 min 0 min 0 W/m 16,7 km/h (3 Bft) 100,00 %
04.12.2015 22:14 6,7 C 6,7 C 5,0 C 89 % 0 lf 1031,0 hPa 0,0 l/m 0 min 0 min 0 W/m 14,6 km/h (3 Bft) 100,00 %
04.12.2015 22:16 6,7 C 6,7 C 5,0 C 89 % 0 lf 1031,0 hPa 0,0 l/m 0 min 0 min 0 W/m 20,9 km/h (4 Bft) 97,87 %
04.12.2015 22:18 6,7 C 6,7 C 5,0 C 89 % 0 lf 1031,0 hPa 0,0 l/m 0 min 0 min 0 W/m 16,7 km/h (3 Bft) 95,74 %
04.12.2015 22:20 6,7 C 6,7 C 5,0 C 89 % 0 lf 1031,0 hPa 0,0 l/m 0 min 0 min 0 W/m 25,1 km/h (4 Bft) 97,87 %
04.12.2015 22:22 6,7 C 6,7 C 5,0 C 89 % 0 lf 1031,1 hPa 0,0 l/m 0 min 0 min 0 W/m 20,9 km/h (4 Bft) 95,74 %
04.12.2015 22:24 6,7 C 6,7 C 5,0 C 89 % 0 lf 1031,0 hPa 0,0 l/m 0 min 0 min 0 W/m 14,6 km/h (3 Bft) 93,48 %
04.12.2015 22:26 6,7 C 6,7 C 5,0 C 89 % 0 lf 1031,0 hPa 0,0 l/m 0 min 0 min 0 W/m 25,1 km/h (4 Bft) 97,87 %
04.12.2015 22:28 6,7 C 6,7 C 5,0 C 89 % 0 lf 1030,9 hPa 0,0 l/m 0 min 0 min 0 W/m 16,7 km/h (3 Bft) 93,62 %
04.12.2015 22:30 6,7 C 6,7 C 5,0 C 89 % 0 lf 1030,9 hPa 0,0 l/m 0 min 0 min 0 W/m 18,8 km/h (3 Bft) 95,74 %
04.12.2015 22:32 6,7 C 6,7 C 5,0 C 89 % 0 lf 1030,9 hPa 0,0 l/m 0 min 0 min 0 W/m 12,6 km/h (3 Bft) 93,62 %
04.12.2015 22:34 6,7 C 6,7 C 5,0 C 89 % 0 lf 1030,8 hPa 0,0 l/m 0 min 0 min 0 W/m 14,6 km/h (3 Bft) 97,87 %
04.12.2015 22:36 6,7 C 6,7 C 5,0 C 89 % 0 lf 1030,8 hPa 0,0 l/m 0 min 0 min 0 W/m 25,1 km/h (4 Bft) 95,65 %
04.12.2015 22:38 6,7 C 6,7 C 5,0 C 89 % 0 lf 1030,8 hPa 0,0 l/m 0 min 0 min 0 W/m 23,0 km/h (4 Bft) 97,87 %
04.12.2015 22:40 6,7 C 6,7 C 5,0 C 89 % 0 lf 1030,9 hPa 0,0 l/m 0 min 0 min 0 W/m 20,9 km/h (4 Bft) 97,87 %
04.12.2015 22:42 6,7 C 6,7 C 5,0 C 89 % 0 lf 1030,8 hPa 0,0 l/m 0 min 0 min 0 W/m 25,1 km/h (4 Bft) 97,87 %
04.12.2015 22:44 6,7 C 6,7 C 5,0 C 89 % 0 lf 1030,8 hPa 0,0 l/m 0 min 0 min 0 W/m 14,6 km/h (3 Bft) 97,87 %
04.12.2015 22:46 6,7 C 6,7 C 5,0 C 89 % 0 lf 1030,8 hPa 0,0 l/m 0 min 0 min 0 W/m 16,7 km/h (3 Bft) 95,65 %
04.12.2015 22:48 6,7 C 6,7 C 5,0 C 89 % 0 lf 1030,9 hPa 0,0 l/m 0 min 0 min 0 W/m 14,6 km/h (3 Bft) 97,87 %
04.12.2015 22:50 6,7 C 6,7 C 5,0 C 89 % 0 lf 1031,0 hPa 0,0 l/m 0 min 0 min 0 W/m 16,7 km/h (3 Bft) 97,87 %
04.12.2015 22:52 6,7 C 6,7 C 5,0 C 89 % 0 lf 1031,0 hPa 0,0 l/m 0 min 0 min 0 W/m 14,6 km/h (3 Bft) 100,00 %
04.12.2015 22:54 6,6 C 6,7 C 5,0 C 89 % 0 lf 1031,0 hPa 0,0 l/m 0 min 0 min 0 W/m 18,8 km/h (3 Bft) 95,74 %
04.12.2015 22:56 6,6 C 6,7 C 5,0 C 89 % 0 lf 1031,0 hPa 0,0 l/m 0 min 0 min 0 W/m 20,9 km/h (4 Bft) 97,87 %
04.12.2015 22:58 6,6 C 6,7 C 5,0 C 89 % 0 lf 1031,0 hPa 0,0 l/m 0 min 0 min 0 W/m 23,0 km/h (4 Bft) 95,65 %
04.12.2015 23:00 6,6 C 6,7 C 5,0 C 89 % 0 lf 1031,0 hPa 0,0 l/m 0 min 0 min 0 W/m 20,9 km/h (4 Bft) 95,74 %
04.12.2015 23:02 6,6 C 6,7 C 5,0 C 89 % 0 lf 1031,0 hPa 0,0 l/m 0 min 0 min 0 W/m 18,8 km/h (3 Bft) 100,00 %
04.12.2015 23:04 6,6 C 6,7 C 5,0 C 89 % 0 lf 1031,0 hPa 0,0 l/m 0 min 0 min 0 W/m 27,2 km/h (4 Bft) 97,87 %
04.12.2015 23:06 6,6 C 6,7 C 5,0 C 89 % 0 lf 1031,0 hPa 0,0 l/m 0 min 0 min 0 W/m 16,7 km/h (3 Bft) 94,29 %
04.12.2015 23:08 6,6 C 6,7 C 5,0 C 89 % 0 lf 1031,0 hPa 0,0 l/m 0 min 0 min 0 W/m 18,8 km/h (3 Bft) 97,87 %
04.12.2015 23:10 6,6 C 6,7 C 5,0 C 89 % 0 lf 1031,0 hPa 0,0 l/m 0 min 0 min 0 W/m 23,0 km/h (4 Bft) 95,65 %
04.12.2015 23:12 6,6 C 6,7 C 5,0 C 89 % 0 lf 1031,0 hPa 0,0 l/m 0 min 0 min 0 W/m 18,8 km/h (3 Bft) 93,62 %
04.12.2015 23:14 6,6 C 6,7 C 5,0 C 89 % 0 lf 1031,1 hPa 0,0 l/m 0 min 0 min 0 W/m 20,9 km/h (4 Bft) 95,74 %
04.12.2015 23:16 6,7 C 6,7 C 5,0 C 89 % 0 lf 1031,0 hPa 0,0 l/m 0 min 0 min 0 W/m 20,9 km/h (4 Bft) 93,62 %
04.12.2015 23:18 6,6 C 6,7 C 5,0 C 89 % 0 lf 1031,0 hPa 0,0 l/m 0 min 0 min 0 W/m 14,6 km/h (3 Bft) 95,74 %
04.12.2015 23:20 6,7 C 6,7 C 5,0 C 89 % 0 lf 1031,0 hPa 0,0 l/m 0 min 0 min 0 W/m 14,6 km/h (3 Bft) 95,74 %
04.12.2015 23:22 6,6 C 6,7 C 5,0 C 89 % 0 lf 1031,0 hPa 0,0 l/m 0 min 0 min 0 W/m 12,6 km/h (3 Bft) 95,65 %
04.12.2015 23:24 6,6 C 6,7 C 5,0 C 89 % 0 lf 1030,9 hPa 0,0 l/m 0 min 0 min 0 W/m 18,8 km/h (3 Bft) 95,74 %
04.12.2015 23:26 6,6 C 6,7 C 5,0 C 89 % 0 lf 1030,9 hPa 0,0 l/m 0 min 0 min 0 W/m 23,0 km/h (4 Bft) 93,62 %
04.12.2015 23:28 6,6 C 6,7 C 5,0 C 89 % 0 lf 1030,9 hPa 0,0 l/m 0 min 0 min 0 W/m 25,1 km/h (4 Bft) 89,36 %
04.12.2015 23:30 6,6 C 6,7 C 5,0 C 89 % 0 lf 1031,0 hPa 0,0 l/m 0 min 0 min 0 W/m 27,2 km/h (4 Bft) 93,62 %
04.12.2015 23:32 6,6 C 6,7 C 5,0 C 89 % 0 lf 1030,9 hPa 0,0 l/m 0 min 0 min 0 W/m 16,7 km/h (3 Bft) 95,74 %
04.12.2015 23:34 6,6 C 6,7 C 5,0 C 89 % 0 lf 1030,9 hPa 0,0 l/m 0 min 0 min 0 W/m 25,1 km/h (4 Bft) 93,48 %
04.12.2015 23:36 6,6 C 6,7 C 5,0 C 89 % 0 lf 1030,9 hPa 0,0 l/m 0 min 0 min 0 W/m 16,7 km/h (3 Bft) 94,44 %
04.12.2015 23:38 6,6 C 6,7 C 5,0 C 89 % 0 lf 1030,8 hPa 0,0 l/m 0 min 0 min 0 W/m 25,1 km/h (4 Bft) 95,74 %
04.12.2015 23:40 6,6 C 6,7 C 5,0 C 89 % 0 lf 1030,8 hPa 0,0 l/m 0 min 0 min 0 W/m 18,8 km/h (3 Bft) 93,62 %
04.12.2015 23:42 6,6 C 6,7 C 5,0 C 89 % 0 lf 1030,9 hPa 0,0 l/m 0 min 0 min 0 W/m 23,0 km/h (4 Bft) 95,74 %
04.12.2015 23:44 6,6 C 6,7 C 5,0 C 89 % 0 lf 1030,8 hPa 0,0 l/m 0 min 0 min 0 W/m 18,8 km/h (3 Bft) 95,74 %
04.12.2015 23:46 6,6 C 6,7 C 5,0 C 89 % 0 lf 1030,9 hPa 0,0 l/m 0 min 0 min 0 W/m 31,4 km/h (5 Bft) 93,48 %
04.12.2015 23:48 6,6 C 6,7 C 5,0 C 89 % 0 lf 1030,8 hPa 0,0 l/m 0 min 0 min 0 W/m 12,6 km/h (3 Bft) 91,49 %
04.12.2015 23:50 6,6 C 6,7 C 5,0 C 89 % 0 lf 1030,7 hPa 0,0 l/m 0 min 0 min 0 W/m 16,7 km/h (3 Bft) 97,87 %
04.12.2015 23:52 6,6 C 6,7 C 5,0 C 89 % 0 lf 1030,7 hPa 0,0 l/m 0 min 0 min 0 W/m 16,7 km/h (3 Bft) 93,62 %
04.12.2015 23:54 6,6 C 6,7 C 5,0 C 89 % 0 lf 1030,8 hPa 0,0 l/m 0 min 0 min 0 W/m 16,7 km/h (3 Bft) 93,62 %
04.12.2015 23:56 6,6 C 6,7 C 5,0 C 89 % 0 lf 1030,8 hPa 0,0 l/m 0 min 0 min 0 W/m 16,7 km/h (3 Bft) 91,49 %
04.12.2015 23:58 6,6 C 6,7 C 5,0 C 89 % 0 lf 1030,7 hPa 0,0 l/m 0 min 0 min 0 W/m 14,6 km/h (3 Bft) 93,48 %
_ Min-Zeit 22:50 19:28 19:34 04:36 00:00 04:22 - - - - 10:40 20:54
Minimum _ 6,6 C 6,7 C 5,0 C 79 % 0 lf 1018,5 hPa - - - - 4,2 km/h (1 Bft) 85,11 %
_ Max-Zeit 04:48 13:32 04:28 08:58 04:42 20:52 07:02 10:16 04:20 13:02 05:06 01:10
Maximum _ 10,9 C 18,3 C 9,4 C 97 % 15 lf 1031,3 hPa 0,4 l/m 2 min 2 min 342 W/m 54,4 km/h
W-SW (7 Bft)
100,00 %
Durchschnitt _ 8,4 C 8,8 C 6,8 C 88 % 4 lf 1025,7 hPa #5,4 l/m #2:58 h #4:06 h 104 W/m 20,1 km/h (4 Bft) 95,91 %
© 2015 W. Hausmann